Contract 0x2A9718defF471f3Bb91FA0ECEAB14154F150a385 5

 

Contract Overview

ElonGate: ElonGate Token
Balance:
486.623153324200798556 BNB

BNB Value:
$172,488.44 (@ $354.46/BNB)

Token:
 
Txn Hash Method
Block
From
To
Value [Txn Fee]
0xa027043e6bf69de0f440959b410a31ecd8213167a211b78a7ef986b292ab577cApprove111250142021-09-22 3:02:4738 mins ago0xa174039b4c207cc292027f037e6d3305a52f88b8 IN  ElonGate: ElonGate Token0 BNB0.00022274
0x173e375c57bb4ec295ac19f3705e6e1566dd19e2d4f99d000d9c56ee48597e00Approve111242942021-09-22 2:26:461 hr 14 mins ago0xa07d4ba9f3e9bbe32ec79431045d40fecd395e16 IN  ElonGate: ElonGate Token0 BNB0.00022274
0xb9565c0a2469bcf1413b316b022f2aa57d7344990e33ddf012b2f12cf71977b6Transfer111240292021-09-22 2:13:311 hr 27 mins ago0x72469ca8edf32ebd9996f25cf32f49e931ff23eb IN  ElonGate: ElonGate Token0 BNB0.001401305
0xaca68e125acc27f7d55c300a2b38f83e1dd6914f8714f3b2fb2300f20c616371Approve111237612021-09-22 2:00:071 hr 40 mins ago0xddf8bd4619926e9dfab5dcb1d2ba268ecccc6393 IN  ElonGate: ElonGate Token0 BNB0.000267288
0x3a1023b2352efd832c7d6cb4d0881855aae76799da841cd3fbf70e8b51ea9b1cTransfer111237502021-09-22 1:59:341 hr 41 mins ago0x13c1016caf6fa64a53091378e81c7b5a1b0c3850 IN  ElonGate: ElonGate Token0 BNB0.001401305
0xb31ed430cc2b0f0ecf6000705187213e92ff5afd44222429e4232ad78a043ea1Approve111226292021-09-22 1:02:372 hrs 38 mins ago0x5f7edd6cc0c56cea49371dce4d205170d23e4ad5 IN  ElonGate: ElonGate Token0 BNB0.00007291
0x5278e2765de75b6a0c1a38fe10d025a86981702c6f308f087dc8f35dffc97501Approve111223342021-09-22 0:47:522 hrs 53 mins ago0x814543471362e3dcb929ed8e9db356be54c95caf IN  ElonGate: ElonGate Token0 BNB0.00022274
0x023dc190ba71603076ebc1f14482007f6e26a0e31597737d436e8ac1a27c3314Transfer111220852021-09-22 0:35:243 hrs 5 mins ago0x510bd9627a098ba5662a2d4b53d5f3c9fe316633 IN  ElonGate: ElonGate Token0 BNB0.001326125
0xc8059e12634814154c93290810e5bb63f6a6cbb14c791bddc1978557cd0157eaApprove111217792021-09-22 0:20:013 hrs 20 mins ago0x653cdefa5e6a10d28e2c13688df9fe523caddefc IN  ElonGate: ElonGate Token0 BNB0.00022274
0x06062d1efb4545a1d87c3fbf9eb3be002c8c02a97768e662f386be6501382184Approve111216852021-09-22 0:14:503 hrs 26 mins ago0xd7675fd5a8a3559d215f848b2c0ff160f466923e IN  ElonGate: ElonGate Token0 BNB0.00022274
0x39b2290fd5bb605e286919d017971ca32559d87d1d7b0542d665cffd414d6351Approve111213932021-09-21 23:59:563 hrs 40 mins ago0x28744a1a561910e9e5577604e81229fbc3946296 IN  ElonGate: ElonGate Token0 BNB0.00022274
0x194e6410326e55eedc6d6b6d327a548e6f6e56e3a7662eac86cdd42a6bb16f25Approve111211442021-09-21 23:47:163 hrs 53 mins ago0x569f180b6e12eb4eba611bdc997312d2b503c4be IN  ElonGate: ElonGate Token0 BNB0.00022274
0x9ce444d4830a894b50979b047b078bdb0567e4b22d7a43b664f4041d996e8cd2Approve111210882021-09-21 23:44:283 hrs 56 mins ago0x2b84bd54bda0ecac512cdeb6e53b3b1937ea9e1a IN  ElonGate: ElonGate Token0 BNB0.00022274
0x40ff924185d80a9750ab7296aa81fe8103f18e78003ae4078ec4dc3b2935cccdApprove111205672021-09-21 23:17:564 hrs 22 mins ago0x9346060c232d7f36ce296cba94e04693a81f0fd8 IN  ElonGate: ElonGate Token0 BNB0.00022274
0x1de008a29f7ea289eefd8ce7ccc4d0cd234095d9b512741f6215e6e6b5ceccd8Approve111201232021-09-21 22:55:434 hrs 45 mins ago0x12548c5260f32f5d8a45902f67ed23d50f2e5f8e IN  ElonGate: ElonGate Token0 BNB0.00012674
0x75d6989e064423966f68a341ac034fb99ad0dcd829dd35bfe3e9726cee797cadApprove111201192021-09-21 22:55:314 hrs 45 mins ago0x12548c5260f32f5d8a45902f67ed23d50f2e5f8e IN  ElonGate: ElonGate Token0 BNB0.00012674
0xbcca6ef76fbab27a70c022c3272360c751a7bd3f472908fa3c1f502138fa52dfApprove111201162021-09-21 22:55:224 hrs 45 mins ago0x12548c5260f32f5d8a45902f67ed23d50f2e5f8e IN  ElonGate: ElonGate Token0 BNB0.00012674
0xa45383784882fd296e8cee114afe551bfdb7a50e3ed3a2d96d926080d5763d50Approve111201132021-09-21 22:55:134 hrs 45 mins ago0x12548c5260f32f5d8a45902f67ed23d50f2e5f8e IN  ElonGate: ElonGate Token0 BNB0.00022274
0x752b519a2324a4cd604844a77193b40b6790bb97a1f96e9eee55c052d2fbaecdTransfer111199562021-09-21 22:47:224 hrs 53 mins ago0x1310299d0a9b2c6291980b085b0aed6edd776793 IN  ElonGate: ElonGate Token0 BNB0.001328345
0x7eb41d4cba7da397a11c1c616959327ad0afad8f33e09485fccce99e00aa70ceTransfer111199232021-09-21 22:45:434 hrs 55 mins ago0x8084126e7e961bc68896d2194de02674269a31d7 IN  ElonGate: ElonGate Token0 BNB0.001326305
0x91ab6c5a0f66e286c4fd4c68d49e9b5e9c220bd44600e7b5a71c0396af128b7bApprove111191942021-09-21 22:08:225 hrs 32 mins ago0x6c273334d17b5ee29c0bd8b55c96246c60ab6580 IN  ElonGate: ElonGate Token0 BNB0.00022274
0x3fa8b7cd7c18445d79a4961d7546b9d59d921a63c28e1451abca47c69325f573Approve111189602021-09-21 21:56:405 hrs 44 mins ago0x908256765322ff23b60b850267886e5870ee6add IN  ElonGate: ElonGate Token0 BNB0.00022274
0x315257d7744b5a6774f1b3935a80ecb0d76f28406b853dd55f778535ac25377bTransfer111189442021-09-21 21:55:525 hrs 45 mins ago0xb0589d0de09da17238c0c15567ac0de9c10e968f IN  ElonGate: ElonGate Token0 BNB0.00072
0x2c8d042f1f95529ff130cb3d9deda9bcb818bff68a22a9a59fb5d0da27d02587Transfer111189352021-09-21 21:55:255 hrs 45 mins ago0xb0589d0de09da17238c0c15567ac0de9c10e968f IN  ElonGate: ElonGate Token0 BNB0.00072
0xc5fc4216e5c5657c18e3925d60905e63a568541763aad6f3b04f68a4da9ac48dApprove111189202021-09-21 21:54:405 hrs 46 mins ago0x31d4497661bff82da6c08d019645dd2105e53854 IN  ElonGate: ElonGate Token0 BNB0.00022274
[ Download CSV Export 

OVERVIEW

Elongate is a Yield & Liquidity Generation Token that leverages the raw power of memes to donate to charity.

Latest 25 internal transaction
Parent Txn Hash Block From To Value
0x0334eed6e80f9da6b01dce1c7bf9be98a85d354898c19cf92c7d4a8aaef26562110781602021-09-20 11:46:281 day 15 hrs ago PancakeSwap: Router ElonGate: ElonGate Token0.029048555646586664 BNB
0x0334eed6e80f9da6b01dce1c7bf9be98a85d354898c19cf92c7d4a8aaef26562110781602021-09-20 11:46:281 day 15 hrs ago ElonGate: ElonGate Token PancakeSwap: Router20.891905814601352657 BNB
0x0334eed6e80f9da6b01dce1c7bf9be98a85d354898c19cf92c7d4a8aaef26562110781602021-09-20 11:46:281 day 15 hrs ago PancakeSwap: Router ElonGate: ElonGate Token20.891905814601352657 BNB
0x0c0acee1f8b73dc782c27eb021bc32f22c688b091d58bf077b1fc508c77ad6d9108795412021-09-13 13:40:308 days 14 hrs ago PancakeSwap: Router ElonGate: ElonGate Token0.033179588306861717 BNB
0x0c0acee1f8b73dc782c27eb021bc32f22c688b091d58bf077b1fc508c77ad6d9108795412021-09-13 13:40:308 days 14 hrs ago ElonGate: ElonGate Token PancakeSwap: Router22.113790453879981853 BNB
0x0c0acee1f8b73dc782c27eb021bc32f22c688b091d58bf077b1fc508c77ad6d9108795412021-09-13 13:40:308 days 14 hrs ago PancakeSwap: Router ElonGate: ElonGate Token22.113790453879981853 BNB
0xd1b53ce16192835fea180f5fae1ababa8e764d74de010e9e810f625fe372bc12107359202021-09-08 13:01:2013 days 14 hrs ago PancakeSwap: Router ElonGate: ElonGate Token0.037991300597742967 BNB
0xd1b53ce16192835fea180f5fae1ababa8e764d74de010e9e810f625fe372bc12107359202021-09-08 13:01:2013 days 14 hrs ago ElonGate: ElonGate Token PancakeSwap: Router23.466528045687507515 BNB
0xd1b53ce16192835fea180f5fae1ababa8e764d74de010e9e810f625fe372bc12107359202021-09-08 13:01:2013 days 14 hrs ago PancakeSwap: Router ElonGate: ElonGate Token23.466528045687507515 BNB
0xb5dbf3c2bf831579c8861c8df26f6aca2ffbccea7be8a14b3d2918d538fe5173106551992021-09-05 16:57:1616 days 10 hrs ago PancakeSwap: Router ElonGate: ElonGate Token0.040266865332401084 BNB
0xb5dbf3c2bf831579c8861c8df26f6aca2ffbccea7be8a14b3d2918d538fe5173106551992021-09-05 16:57:1616 days 10 hrs ago ElonGate: ElonGate Token PancakeSwap: Router24.571857177546291022 BNB
0xb5dbf3c2bf831579c8861c8df26f6aca2ffbccea7be8a14b3d2918d538fe5173106551992021-09-05 16:57:1616 days 10 hrs ago PancakeSwap: Router ElonGate: ElonGate Token24.571857177546291022 BNB
0x60dc45d6dc4066ebf6e74b209c87685667f03e4865d8b5082554ca03432aadf6105449942021-09-01 20:21:0320 days 7 hrs ago PancakeSwap: Router ElonGate: ElonGate Token0.049488427876971645 BNB
0x60dc45d6dc4066ebf6e74b209c87685667f03e4865d8b5082554ca03432aadf6105449942021-09-01 20:21:0320 days 7 hrs ago ElonGate: ElonGate Token PancakeSwap: Router27.024279958311098596 BNB
0x60dc45d6dc4066ebf6e74b209c87685667f03e4865d8b5082554ca03432aadf6105449942021-09-01 20:21:0320 days 7 hrs ago PancakeSwap: Router ElonGate: ElonGate Token27.024279958311098596 BNB
0x2b130057eec6d356cf511ac97f40cc1cdee9702889a6afbeff232d342c92a37a104515322021-08-29 13:18:4623 days 14 hrs ago PancakeSwap: Router ElonGate: ElonGate Token0.052830130470807017 BNB
0x2b130057eec6d356cf511ac97f40cc1cdee9702889a6afbeff232d342c92a37a104515322021-08-29 13:18:4623 days 14 hrs ago ElonGate: ElonGate Token PancakeSwap: Router28.316063692860480467 BNB
0x2b130057eec6d356cf511ac97f40cc1cdee9702889a6afbeff232d342c92a37a104515322021-08-29 13:18:4623 days 14 hrs ago PancakeSwap: Router ElonGate: ElonGate Token28.316063692860480467 BNB
0x202e2bf22191a93c724766416506ce82ed872a168c2421d9bd424a5377068edc103468522021-08-25 20:44:3127 days 6 hrs ago PancakeSwap: Router ElonGate: ElonGate Token0.053503687066429972 BNB
0x202e2bf22191a93c724766416506ce82ed872a168c2421d9bd424a5377068edc103468522021-08-25 20:44:3127 days 6 hrs ago ElonGate: ElonGate Token PancakeSwap: Router28.215150609583476552 BNB
0x202e2bf22191a93c724766416506ce82ed872a168c2421d9bd424a5377068edc103468522021-08-25 20:44:3127 days 6 hrs ago PancakeSwap: Router ElonGate: ElonGate Token28.215150609583476552 BNB
0x6766a5bd319c751e014dd515138523bb5b3d23e1ecf041f68c106e7328f56708103467512021-08-25 20:39:2827 days 7 hrs ago PancakeSwap: Router ElonGate: ElonGate Token0.103844427757356279 BNB
0x6766a5bd319c751e014dd515138523bb5b3d23e1ecf041f68c106e7328f56708103467512021-08-25 20:39:2827 days 7 hrs ago ElonGate: ElonGate Token PancakeSwap: Router28.26517249077227094 BNB
0x6766a5bd319c751e014dd515138523bb5b3d23e1ecf041f68c106e7328f56708103467512021-08-25 20:39:2827 days 7 hrs ago PancakeSwap: Router ElonGate: ElonGate Token28.26517249077227094 BNB
0x871082fc86ba6b60761b243e7584cbefeff4610cc9f77a960dddce93c08962f6103421472021-08-25 16:49:0027 days 10 hrs ago ElonGate: ElonGate Token PancakeSwap: Router28.77819731417144706 BNB
[ Download CSV Export 
Loading

Contract Source Code Verified (Exact Match)

Contract Name:
ElonGate

Compiler Version
v0.6.12+commit.27d51765

Optimization Enabled:
No with 200 runs

Other Settings:
default evmVersion, None license

Contract Source Code (Solidity)

/**
 *Submitted for verification at BscScan.com on 2021-03-25
*/

/**
 *Submitted for verification at BscScan.com on 2021-03-23
*/

/**
 *Submitted for verification at BscScan.com on 2021-03-20
*/

pragma solidity ^0.6.12;
// SPDX-License-Identifier: Unlicensed
interface IERC20 {

    function totalSupply() external view returns (uint256);

    /**
     * @dev Returns the amount of tokens owned by `account`.
     */
    function balanceOf(address account) external view returns (uint256);

    /**
     * @dev Moves `amount` tokens from the caller's account to `recipient`.
     *
     * Returns a boolean value indicating whether the operation succeeded.
     *
     * Emits a {Transfer} event.
     */
    function transfer(address recipient, uint256 amount) external returns (bool);

    /**
     * @dev Returns the remaining number of tokens that `spender` will be
     * allowed to spend on behalf of `owner` through {transferFrom}. This is
     * zero by default.
     *
     * This value changes when {approve} or {transferFrom} are called.
     */
    function allowance(address owner, address spender) external view returns (uint256);

    /**
     * @dev Sets `amount` as the allowance of `spender` over the caller's tokens.
     *
     * Returns a boolean value indicating whether the operation succeeded.
     *
     * IMPORTANT: Beware that changing an allowance with this method brings the risk
     * that someone may use both the old and the new allowance by unfortunate
     * transaction ordering. One possible solution to mitigate this race
     * condition is to first reduce the spender's allowance to 0 and set the
     * desired value afterwards:
     * https://github.com/ethereum/EIPs/issues/20#issuecomment-263524729
     *
     * Emits an {Approval} event.
     */
    function approve(address spender, uint256 amount) external returns (bool);

    /**
     * @dev Moves `amount` tokens from `sender` to `recipient` using the
     * allowance mechanism. `amount` is then deducted from the caller's
     * allowance.
     *
     * Returns a boolean value indicating whether the operation succeeded.
     *
     * Emits a {Transfer} event.
     */
    function transferFrom(address sender, address recipient, uint256 amount) external returns (bool);

    /**
     * @dev Emitted when `value` tokens are moved from one account (`from`) to
     * another (`to`).
     *
     * Note that `value` may be zero.
     */
    event Transfer(address indexed from, address indexed to, uint256 value);

    /**
     * @dev Emitted when the allowance of a `spender` for an `owner` is set by
     * a call to {approve}. `value` is the new allowance.
     */
    event Approval(address indexed owner, address indexed spender, uint256 value);
}



/**
 * @dev Wrappers over Solidity's arithmetic operations with added overflow
 * checks.
 *
 * Arithmetic operations in Solidity wrap on overflow. This can easily result
 * in bugs, because programmers usually assume that an overflow raises an
 * error, which is the standard behavior in high level programming languages.
 * `SafeMath` restores this intuition by reverting the transaction when an
 * operation overflows.
 *
 * Using this library instead of the unchecked operations eliminates an entire
 * class of bugs, so it's recommended to use it always.
 */
 
library SafeMath {
    /**
     * @dev Returns the addition of two unsigned integers, reverting on
     * overflow.
     *
     * Counterpart to Solidity's `+` operator.
     *
     * Requirements:
     *
     * - Addition cannot overflow.
     */
    function add(uint256 a, uint256 b) internal pure returns (uint256) {
        uint256 c = a + b;
        require(c >= a, "SafeMath: addition overflow");

        return c;
    }

    /**
     * @dev Returns the subtraction of two unsigned integers, reverting on
     * overflow (when the result is negative).
     *
     * Counterpart to Solidity's `-` operator.
     *
     * Requirements:
     *
     * - Subtraction cannot overflow.
     */
    function sub(uint256 a, uint256 b) internal pure returns (uint256) {
        return sub(a, b, "SafeMath: subtraction overflow");
    }

    /**
     * @dev Returns the subtraction of two unsigned integers, reverting with custom message on
     * overflow (when the result is negative).
     *
     * Counterpart to Solidity's `-` operator.
     *
     * Requirements:
     *
     * - Subtraction cannot overflow.
     */
    function sub(uint256 a, uint256 b, string memory errorMessage) internal pure returns (uint256) {
        require(b <= a, errorMessage);
        uint256 c = a - b;

        return c;
    }

    /**
     * @dev Returns the multiplication of two unsigned integers, reverting on
     * overflow.
     *
     * Counterpart to Solidity's `*` operator.
     *
     * Requirements:
     *
     * - Multiplication cannot overflow.
     */
    function mul(uint256 a, uint256 b) internal pure returns (uint256) {
        // Gas optimization: this is cheaper than requiring 'a' not being zero, but the
        // benefit is lost if 'b' is also tested.
        // See: https://github.com/OpenZeppelin/openzeppelin-contracts/pull/522
        if (a == 0) {
            return 0;
        }

        uint256 c = a * b;
        require(c / a == b, "SafeMath: multiplication overflow");

        return c;
    }

    /**
     * @dev Returns the integer division of two unsigned integers. Reverts on
     * division by zero. The result is rounded towards zero.
     *
     * Counterpart to Solidity's `/` operator. Note: this function uses a
     * `revert` opcode (which leaves remaining gas untouched) while Solidity
     * uses an invalid opcode to revert (consuming all remaining gas).
     *
     * Requirements:
     *
     * - The divisor cannot be zero.
     */
    function div(uint256 a, uint256 b) internal pure returns (uint256) {
        return div(a, b, "SafeMath: division by zero");
    }

    /**
     * @dev Returns the integer division of two unsigned integers. Reverts with custom message on
     * division by zero. The result is rounded towards zero.
     *
     * Counterpart to Solidity's `/` operator. Note: this function uses a
     * `revert` opcode (which leaves remaining gas untouched) while Solidity
     * uses an invalid opcode to revert (consuming all remaining gas).
     *
     * Requirements:
     *
     * - The divisor cannot be zero.
     */
    function div(uint256 a, uint256 b, string memory errorMessage) internal pure returns (uint256) {
        require(b > 0, errorMessage);
        uint256 c = a / b;
        // assert(a == b * c + a % b); // There is no case in which this doesn't hold

        return c;
    }

    /**
     * @dev Returns the remainder of dividing two unsigned integers. (unsigned integer modulo),
     * Reverts when dividing by zero.
     *
     * Counterpart to Solidity's `%` operator. This function uses a `revert`
     * opcode (which leaves remaining gas untouched) while Solidity uses an
     * invalid opcode to revert (consuming all remaining gas).
     *
     * Requirements:
     *
     * - The divisor cannot be zero.
     */
    function mod(uint256 a, uint256 b) internal pure returns (uint256) {
        return mod(a, b, "SafeMath: modulo by zero");
    }

    /**
     * @dev Returns the remainder of dividing two unsigned integers. (unsigned integer modulo),
     * Reverts with custom message when dividing by zero.
     *
     * Counterpart to Solidity's `%` operator. This function uses a `revert`
     * opcode (which leaves remaining gas untouched) while Solidity uses an
     * invalid opcode to revert (consuming all remaining gas).
     *
     * Requirements:
     *
     * - The divisor cannot be zero.
     */
    function mod(uint256 a, uint256 b, string memory errorMessage) internal pure returns (uint256) {
        require(b != 0, errorMessage);
        return a % b;
    }
}

abstract contract Context {
    function _msgSender() internal view virtual returns (address payable) {
        return msg.sender;
    }

    function _msgData() internal view virtual returns (bytes memory) {
        this; // silence state mutability warning without generating bytecode - see https://github.com/ethereum/solidity/issues/2691
        return msg.data;
    }
}


/**
 * @dev Collection of functions related to the address type
 */
library Address {
    /**
     * @dev Returns true if `account` is a contract.
     *
     * [IMPORTANT]
     * ====
     * It is unsafe to assume that an address for which this function returns
     * false is an externally-owned account (EOA) and not a contract.
     *
     * Among others, `isContract` will return false for the following
     * types of addresses:
     *
     *  - an externally-owned account
     *  - a contract in construction
     *  - an address where a contract will be created
     *  - an address where a contract lived, but was destroyed
     * ====
     */
    function isContract(address account) internal view returns (bool) {
        // According to EIP-1052, 0x0 is the value returned for not-yet created accounts
        // and 0xc5d2460186f7233c927e7db2dcc703c0e500b653ca82273b7bfad8045d85a470 is returned
        // for accounts without code, i.e. `keccak256('')`
        bytes32 codehash;
        bytes32 accountHash = 0xc5d2460186f7233c927e7db2dcc703c0e500b653ca82273b7bfad8045d85a470;
        // solhint-disable-next-line no-inline-assembly
        assembly { codehash := extcodehash(account) }
        return (codehash != accountHash && codehash != 0x0);
    }

    /**
     * @dev Replacement for Solidity's `transfer`: sends `amount` wei to
     * `recipient`, forwarding all available gas and reverting on errors.
     *
     * https://eips.ethereum.org/EIPS/eip-1884[EIP1884] increases the gas cost
     * of certain opcodes, possibly making contracts go over the 2300 gas limit
     * imposed by `transfer`, making them unable to receive funds via
     * `transfer`. {sendValue} removes this limitation.
     *
     * https://diligence.consensys.net/posts/2019/09/stop-using-soliditys-transfer-now/[Learn more].
     *
     * IMPORTANT: because control is transferred to `recipient`, care must be
     * taken to not create reentrancy vulnerabilities. Consider using
     * {ReentrancyGuard} or the
     * https://solidity.readthedocs.io/en/v0.5.11/security-considerations.html#use-the-checks-effects-interactions-pattern[checks-effects-interactions pattern].
     */
    function sendValue(address payable recipient, uint256 amount) internal {
        require(address(this).balance >= amount, "Address: insufficient balance");

        // solhint-disable-next-line avoid-low-level-calls, avoid-call-value
        (bool success, ) = recipient.call{ value: amount }("");
        require(success, "Address: unable to send value, recipient may have reverted");
    }

    /**
     * @dev Performs a Solidity function call using a low level `call`. A
     * plain`call` is an unsafe replacement for a function call: use this
     * function instead.
     *
     * If `target` reverts with a revert reason, it is bubbled up by this
     * function (like regular Solidity function calls).
     *
     * Returns the raw returned data. To convert to the expected return value,
     * use https://solidity.readthedocs.io/en/latest/units-and-global-variables.html?highlight=abi.decode#abi-encoding-and-decoding-functions[`abi.decode`].
     *
     * Requirements:
     *
     * - `target` must be a contract.
     * - calling `target` with `data` must not revert.
     *
     * _Available since v3.1._
     */
    function functionCall(address target, bytes memory data) internal returns (bytes memory) {
      return functionCall(target, data, "Address: low-level call failed");
    }

    /**
     * @dev Same as {xref-Address-functionCall-address-bytes-}[`functionCall`], but with
     * `errorMessage` as a fallback revert reason when `target` reverts.
     *
     * _Available since v3.1._
     */
    function functionCall(address target, bytes memory data, string memory errorMessage) internal returns (bytes memory) {
        return _functionCallWithValue(target, data, 0, errorMessage);
    }

    /**
     * @dev Same as {xref-Address-functionCall-address-bytes-}[`functionCall`],
     * but also transferring `value` wei to `target`.
     *
     * Requirements:
     *
     * - the calling contract must have an ETH balance of at least `value`.
     * - the called Solidity function must be `payable`.
     *
     * _Available since v3.1._
     */
    function functionCallWithValue(address target, bytes memory data, uint256 value) internal returns (bytes memory) {
        return functionCallWithValue(target, data, value, "Address: low-level call with value failed");
    }

    /**
     * @dev Same as {xref-Address-functionCallWithValue-address-bytes-uint256-}[`functionCallWithValue`], but
     * with `errorMessage` as a fallback revert reason when `target` reverts.
     *
     * _Available since v3.1._
     */
    function functionCallWithValue(address target, bytes memory data, uint256 value, string memory errorMessage) internal returns (bytes memory) {
        require(address(this).balance >= value, "Address: insufficient balance for call");
        return _functionCallWithValue(target, data, value, errorMessage);
    }

    function _functionCallWithValue(address target, bytes memory data, uint256 weiValue, string memory errorMessage) private returns (bytes memory) {
        require(isContract(target), "Address: call to non-contract");

        // solhint-disable-next-line avoid-low-level-calls
        (bool success, bytes memory returndata) = target.call{ value: weiValue }(data);
        if (success) {
            return returndata;
        } else {
            // Look for revert reason and bubble it up if present
            if (returndata.length > 0) {
                // The easiest way to bubble the revert reason is using memory via assembly

                // solhint-disable-next-line no-inline-assembly
                assembly {
                    let returndata_size := mload(returndata)
                    revert(add(32, returndata), returndata_size)
                }
            } else {
                revert(errorMessage);
            }
        }
    }
}

/**
 * @dev Contract module which provides a basic access control mechanism, where
 * there is an account (an owner) that can be granted exclusive access to
 * specific functions.
 *
 * By default, the owner account will be the one that deploys the contract. This
 * can later be changed with {transferOwnership}.
 *
 * This module is used through inheritance. It will make available the modifier
 * `onlyOwner`, which can be applied to your functions to restrict their use to
 * the owner.
 */
contract Ownable is Context {
    address private _owner;
    address private _previousOwner;
    uint256 private _lockTime;

    event OwnershipTransferred(address indexed previousOwner, address indexed newOwner);

    /**
     * @dev Initializes the contract setting the deployer as the initial owner.
     */
    constructor () internal {
        address msgSender = _msgSender();
        _owner = msgSender;
        emit OwnershipTransferred(address(0), msgSender);
    }

    /**
     * @dev Returns the address of the current owner.
     */
    function owner() public view returns (address) {
        return _owner;
    }

    /**
     * @dev Throws if called by any account other than the owner.
     */
    modifier onlyOwner() {
        require(_owner == _msgSender(), "Ownable: caller is not the owner");
        _;
    }

     /**
     * @dev Leaves the contract without owner. It will not be possible to call
     * `onlyOwner` functions anymore. Can only be called by the current owner.
     *
     * NOTE: Renouncing ownership will leave the contract without an owner,
     * thereby removing any functionality that is only available to the owner.
     */
    function renounceOwnership() public virtual onlyOwner {
        emit OwnershipTransferred(_owner, address(0));
        _owner = address(0);
    }

    /**
     * @dev Transfers ownership of the contract to a new account (`newOwner`).
     * Can only be called by the current owner.
     */
    function transferOwnership(address newOwner) public virtual onlyOwner {
        require(newOwner != address(0), "Ownable: new owner is the zero address");
        emit OwnershipTransferred(_owner, newOwner);
        _owner = newOwner;
    }

    function geUnlockTime() public view returns (uint256) {
        return _lockTime;
    }

    //Locks the contract for owner for the amount of time provided
    function lock(uint256 time) public virtual onlyOwner {
        _previousOwner = _owner;
        _owner = address(0);
        _lockTime = now + time;
        emit OwnershipTransferred(_owner, address(0));
    }
    
    //Unlocks the contract for owner when _lockTime is exceeds
    function unlock() public virtual {
        require(_previousOwner == msg.sender, "You don't have permission to unlock");
        require(now > _lockTime , "Contract is locked until 7 days");
        emit OwnershipTransferred(_owner, _previousOwner);
        _owner = _previousOwner;
    }
}

// pragma solidity >=0.5.0;

interface IUniswapV2Factory {
    event PairCreated(address indexed token0, address indexed token1, address pair, uint);

    function feeTo() external view returns (address);
    function feeToSetter() external view returns (address);

    function getPair(address tokenA, address tokenB) external view returns (address pair);
    function allPairs(uint) external view returns (address pair);
    function allPairsLength() external view returns (uint);

    function createPair(address tokenA, address tokenB) external returns (address pair);

    function setFeeTo(address) external;
    function setFeeToSetter(address) external;
}


// pragma solidity >=0.5.0;

interface IUniswapV2Pair {
    event Approval(address indexed owner, address indexed spender, uint value);
    event Transfer(address indexed from, address indexed to, uint value);

    function name() external pure returns (string memory);
    function symbol() external pure returns (string memory);
    function decimals() external pure returns (uint8);
    function totalSupply() external view returns (uint);
    function balanceOf(address owner) external view returns (uint);
    function allowance(address owner, address spender) external view returns (uint);

    function approve(address spender, uint value) external returns (bool);
    function transfer(address to, uint value) external returns (bool);
    function transferFrom(address from, address to, uint value) external returns (bool);

    function DOMAIN_SEPARATOR() external view returns (bytes32);
    function PERMIT_TYPEHASH() external pure returns (bytes32);
    function nonces(address owner) external view returns (uint);

    function permit(address owner, address spender, uint value, uint deadline, uint8 v, bytes32 r, bytes32 s) external;

    event Mint(address indexed sender, uint amount0, uint amount1);
    event Burn(address indexed sender, uint amount0, uint amount1, address indexed to);
    event Swap(
        address indexed sender,
        uint amount0In,
        uint amount1In,
        uint amount0Out,
        uint amount1Out,
        address indexed to
    );
    event Sync(uint112 reserve0, uint112 reserve1);

    function MINIMUM_LIQUIDITY() external pure returns (uint);
    function factory() external view returns (address);
    function token0() external view returns (address);
    function token1() external view returns (address);
    function getReserves() external view returns (uint112 reserve0, uint112 reserve1, uint32 blockTimestampLast);
    function price0CumulativeLast() external view returns (uint);
    function price1CumulativeLast() external view returns (uint);
    function kLast() external view returns (uint);

    function mint(address to) external returns (uint liquidity);
    function burn(address to) external returns (uint amount0, uint amount1);
    function swap(uint amount0Out, uint amount1Out, address to, bytes calldata data) external;
    function skim(address to) external;
    function sync() external;

    function initialize(address, address) external;
}

// pragma solidity >=0.6.2;

interface IUniswapV2Router01 {
    function factory() external pure returns (address);
    function WETH() external pure returns (address);

    function addLiquidity(
        address tokenA,
        address tokenB,
        uint amountADesired,
        uint amountBDesired,
        uint amountAMin,
        uint amountBMin,
        address to,
        uint deadline
    ) external returns (uint amountA, uint amountB, uint liquidity);
    function addLiquidityETH(
        address token,
        uint amountTokenDesired,
        uint amountTokenMin,
        uint amountETHMin,
        address to,
        uint deadline
    ) external payable returns (uint amountToken, uint amountETH, uint liquidity);
    function removeLiquidity(
        address tokenA,
        address tokenB,
        uint liquidity,
        uint amountAMin,
        uint amountBMin,
        address to,
        uint deadline
    ) external returns (uint amountA, uint amountB);
    function removeLiquidityETH(
        address token,
        uint liquidity,
        uint amountTokenMin,
        uint amountETHMin,
        address to,
        uint deadline
    ) external returns (uint amountToken, uint amountETH);
    function removeLiquidityWithPermit(
        address tokenA,
        address tokenB,
        uint liquidity,
        uint amountAMin,
        uint amountBMin,
        address to,
        uint deadline,
        bool approveMax, uint8 v, bytes32 r, bytes32 s
    ) external returns (uint amountA, uint amountB);
    function removeLiquidityETHWithPermit(
        address token,
        uint liquidity,
        uint amountTokenMin,
        uint amountETHMin,
        address to,
        uint deadline,
        bool approveMax, uint8 v, bytes32 r, bytes32 s
    ) external returns (uint amountToken, uint amountETH);
    function swapExactTokensForTokens(
        uint amountIn,
        uint amountOutMin,
        address[] calldata path,
        address to,
        uint deadline
    ) external returns (uint[] memory amounts);
    function swapTokensForExactTokens(
        uint amountOut,
        uint amountInMax,
        address[] calldata path,
        address to,
        uint deadline
    ) external returns (uint[] memory amounts);
    function swapExactETHForTokens(uint amountOutMin, address[] calldata path, address to, uint deadline)
        external
        payable
        returns (uint[] memory amounts);
    function swapTokensForExactETH(uint amountOut, uint amountInMax, address[] calldata path, address to, uint deadline)
        external
        returns (uint[] memory amounts);
    function swapExactTokensForETH(uint amountIn, uint amountOutMin, address[] calldata path, address to, uint deadline)
        external
        returns (uint[] memory amounts);
    function swapETHForExactTokens(uint amountOut, address[] calldata path, address to, uint deadline)
        external
        payable
        returns (uint[] memory amounts);

    function quote(uint amountA, uint reserveA, uint reserveB) external pure returns (uint amountB);
    function getAmountOut(uint amountIn, uint reserveIn, uint reserveOut) external pure returns (uint amountOut);
    function getAmountIn(uint amountOut, uint reserveIn, uint reserveOut) external pure returns (uint amountIn);
    function getAmountsOut(uint amountIn, address[] calldata path) external view returns (uint[] memory amounts);
    function getAmountsIn(uint amountOut, address[] calldata path) external view returns (uint[] memory amounts);
}



// pragma solidity >=0.6.2;

interface IUniswapV2Router02 is IUniswapV2Router01 {
    function removeLiquidityETHSupportingFeeOnTransferTokens(
        address token,
        uint liquidity,
        uint amountTokenMin,
        uint amountETHMin,
        address to,
        uint deadline
    ) external returns (uint amountETH);
    function removeLiquidityETHWithPermitSupportingFeeOnTransferTokens(
        address token,
        uint liquidity,
        uint amountTokenMin,
        uint amountETHMin,
        address to,
        uint deadline,
        bool approveMax, uint8 v, bytes32 r, bytes32 s
    ) external returns (uint amountETH);

    function swapExactTokensForTokensSupportingFeeOnTransferTokens(
        uint amountIn,
        uint amountOutMin,
        address[] calldata path,
        address to,
        uint deadline
    ) external;
    function swapExactETHForTokensSupportingFeeOnTransferTokens(
        uint amountOutMin,
        address[] calldata path,
        address to,
        uint deadline
    ) external payable;
    function swapExactTokensForETHSupportingFeeOnTransferTokens(
        uint amountIn,
        uint amountOutMin,
        address[] calldata path,
        address to,
        uint deadline
    ) external;
}


contract ElonGate is Context, IERC20, Ownable {
    using SafeMath for uint256;
    using Address for address;

    mapping (address => uint256) private _rOwned;
    mapping (address => uint256) private _tOwned;
    mapping (address => mapping (address => uint256)) private _allowances;

    mapping (address => bool) private _isExcludedFromFee;

    mapping (address => bool) private _isExcluded;
    address[] private _excluded;
   
    uint256 private constant MAX = ~uint256(0);
    uint256 private _tTotal = 1000000000 * 10**6 * 10**9;
    uint256 private _rTotal = (MAX - (MAX % _tTotal));
    uint256 private _tFeeTotal;

    string private _name = "ElonGate";
    string private _symbol = "ElonGate";
    uint8 private _decimals = 9;
    
    uint256 public _taxFee = 5;
    uint256 private _previousTaxFee = _taxFee;
    
    uint256 public _liquidityFee = 5;
    uint256 private _previousLiquidityFee = _liquidityFee;

    IUniswapV2Router02 public immutable uniswapV2Router;
    address public immutable uniswapV2Pair;
    
    bool inSwapAndLiquify;
    bool public swapAndLiquifyEnabled = true;
    
    uint256 public _maxTxAmount = 5000000 * 10**6 * 10**9;
    uint256 private numTokensSellToAddToLiquidity = 500000 * 10**6 * 10**9;
    
    event MinTokensBeforeSwapUpdated(uint256 minTokensBeforeSwap);
    event SwapAndLiquifyEnabledUpdated(bool enabled);
    event SwapAndLiquify(
        uint256 tokensSwapped,
        uint256 ethReceived,
        uint256 tokensIntoLiqudity
    );
    
    modifier lockTheSwap {
        inSwapAndLiquify = true;
        _;
        inSwapAndLiquify = false;
    }
    
    constructor () public {
        _rOwned[_msgSender()] = _rTotal;
        
        IUniswapV2Router02 _uniswapV2Router = IUniswapV2Router02(0x05fF2B0DB69458A0750badebc4f9e13aDd608C7F); //Pancake Swap's address
         // Create a uniswap pair for this new token
        uniswapV2Pair = IUniswapV2Factory(_uniswapV2Router.factory())
            .createPair(address(this), _uniswapV2Router.WETH());

        // set the rest of the contract variables
        uniswapV2Router = _uniswapV2Router;
        
        //exclude owner and this contract from fee
        _isExcludedFromFee[owner()] = true;
        _isExcludedFromFee[address(this)] = true;
        
        emit Transfer(address(0), _msgSender(), _tTotal);
    }

    function name() public view returns (string memory) {
        return _name;
    }

    function symbol() public view returns (string memory) {
        return _symbol;
    }

    function decimals() public view returns (uint8) {
        return _decimals;
    }

    function totalSupply() public view override returns (uint256) {
        return _tTotal;
    }

    function balanceOf(address account) public view override returns (uint256) {
        if (_isExcluded[account]) return _tOwned[account];
        return tokenFromReflection(_rOwned[account]);
    }

    function transfer(address recipient, uint256 amount) public override returns (bool) {
        _transfer(_msgSender(), recipient, amount);
        return true;
    }

    function allowance(address owner, address spender) public view override returns (uint256) {
        return _allowances[owner][spender];
    }

    function approve(address spender, uint256 amount) public override returns (bool) {
        _approve(_msgSender(), spender, amount);
        return true;
    }

    function transferFrom(address sender, address recipient, uint256 amount) public override returns (bool) {
        _transfer(sender, recipient, amount);
        _approve(sender, _msgSender(), _allowances[sender][_msgSender()].sub(amount, "ERC20: transfer amount exceeds allowance"));
        return true;
    }

    function increaseAllowance(address spender, uint256 addedValue) public virtual returns (bool) {
        _approve(_msgSender(), spender, _allowances[_msgSender()][spender].add(addedValue));
        return true;
    }

    function decreaseAllowance(address spender, uint256 subtractedValue) public virtual returns (bool) {
        _approve(_msgSender(), spender, _allowances[_msgSender()][spender].sub(subtractedValue, "ERC20: decreased allowance below zero"));
        return true;
    }

    function isExcludedFromReward(address account) public view returns (bool) {
        return _isExcluded[account];
    }

    function totalFees() public view returns (uint256) {
        return _tFeeTotal;
    }

    function deliver(uint256 tAmount) public {
        address sender = _msgSender();
        require(!_isExcluded[sender], "Excluded addresses cannot call this function");
        (uint256 rAmount,,,,,) = _getValues(tAmount);
        _rOwned[sender] = _rOwned[sender].sub(rAmount);
        _rTotal = _rTotal.sub(rAmount);
        _tFeeTotal = _tFeeTotal.add(tAmount);
    }

    function reflectionFromToken(uint256 tAmount, bool deductTransferFee) public view returns(uint256) {
        require(tAmount <= _tTotal, "Amount must be less than supply");
        if (!deductTransferFee) {
            (uint256 rAmount,,,,,) = _getValues(tAmount);
            return rAmount;
        } else {
            (,uint256 rTransferAmount,,,,) = _getValues(tAmount);
            return rTransferAmount;
        }
    }

    function tokenFromReflection(uint256 rAmount) public view returns(uint256) {
        require(rAmount <= _rTotal, "Amount must be less than total reflections");
        uint256 currentRate =  _getRate();
        return rAmount.div(currentRate);
    }

    function excludeFromReward(address account) public onlyOwner() {
        // require(account != 0x7a250d5630B4cF539739dF2C5dAcb4c659F2488D, 'We can not exclude Uniswap router.');
        require(!_isExcluded[account], "Account is already excluded");
        if(_rOwned[account] > 0) {
            _tOwned[account] = tokenFromReflection(_rOwned[account]);
        }
        _isExcluded[account] = true;
        _excluded.push(account);
    }

    function includeInReward(address account) external onlyOwner() {
        require(_isExcluded[account], "Account is already excluded");
        for (uint256 i = 0; i < _excluded.length; i++) {
            if (_excluded[i] == account) {
                _excluded[i] = _excluded[_excluded.length - 1];
                _tOwned[account] = 0;
                _isExcluded[account] = false;
                _excluded.pop();
                break;
            }
        }
    }
        function _transferBothExcluded(address sender, address recipient, uint256 tAmount) private {
        (uint256 rAmount, uint256 rTransferAmount, uint256 rFee, uint256 tTransferAmount, uint256 tFee, uint256 tLiquidity) = _getValues(tAmount);
        _tOwned[sender] = _tOwned[sender].sub(tAmount);
        _rOwned[sender] = _rOwned[sender].sub(rAmount);
        _tOwned[recipient] = _tOwned[recipient].add(tTransferAmount);
        _rOwned[recipient] = _rOwned[recipient].add(rTransferAmount);        
        _takeLiquidity(tLiquidity);
        _reflectFee(rFee, tFee);
        emit Transfer(sender, recipient, tTransferAmount);
    }
    
        function excludeFromFee(address account) public onlyOwner {
        _isExcludedFromFee[account] = true;
    }
    
    function includeInFee(address account) public onlyOwner {
        _isExcludedFromFee[account] = false;
    }
    
    function setTaxFeePercent(uint256 taxFee) external onlyOwner() {
        _taxFee = taxFee;
    }
    
    function setLiquidityFeePercent(uint256 liquidityFee) external onlyOwner() {
        _liquidityFee = liquidityFee;
    }
   
    function setMaxTxPercent(uint256 maxTxPercent) external onlyOwner() {
        _maxTxAmount = _tTotal.mul(maxTxPercent).div(
            10**2
        );
    }

    function setSwapAndLiquifyEnabled(bool _enabled) public onlyOwner {
        swapAndLiquifyEnabled = _enabled;
        emit SwapAndLiquifyEnabledUpdated(_enabled);
    }
    
     //to recieve ETH from uniswapV2Router when swaping
    receive() external payable {}

    function _reflectFee(uint256 rFee, uint256 tFee) private {
        _rTotal = _rTotal.sub(rFee);
        _tFeeTotal = _tFeeTotal.add(tFee);
    }

    function _getValues(uint256 tAmount) private view returns (uint256, uint256, uint256, uint256, uint256, uint256) {
        (uint256 tTransferAmount, uint256 tFee, uint256 tLiquidity) = _getTValues(tAmount);
        (uint256 rAmount, uint256 rTransferAmount, uint256 rFee) = _getRValues(tAmount, tFee, tLiquidity, _getRate());
        return (rAmount, rTransferAmount, rFee, tTransferAmount, tFee, tLiquidity);
    }

    function _getTValues(uint256 tAmount) private view returns (uint256, uint256, uint256) {
        uint256 tFee = calculateTaxFee(tAmount);
        uint256 tLiquidity = calculateLiquidityFee(tAmount);
        uint256 tTransferAmount = tAmount.sub(tFee).sub(tLiquidity);
        return (tTransferAmount, tFee, tLiquidity);
    }

    function _getRValues(uint256 tAmount, uint256 tFee, uint256 tLiquidity, uint256 currentRate) private pure returns (uint256, uint256, uint256) {
        uint256 rAmount = tAmount.mul(currentRate);
        uint256 rFee = tFee.mul(currentRate);
        uint256 rLiquidity = tLiquidity.mul(currentRate);
        uint256 rTransferAmount = rAmount.sub(rFee).sub(rLiquidity);
        return (rAmount, rTransferAmount, rFee);
    }

    function _getRate() private view returns(uint256) {
        (uint256 rSupply, uint256 tSupply) = _getCurrentSupply();
        return rSupply.div(tSupply);
    }

    function _getCurrentSupply() private view returns(uint256, uint256) {
        uint256 rSupply = _rTotal;
        uint256 tSupply = _tTotal;      
        for (uint256 i = 0; i < _excluded.length; i++) {
            if (_rOwned[_excluded[i]] > rSupply || _tOwned[_excluded[i]] > tSupply) return (_rTotal, _tTotal);
            rSupply = rSupply.sub(_rOwned[_excluded[i]]);
            tSupply = tSupply.sub(_tOwned[_excluded[i]]);
        }
        if (rSupply < _rTotal.div(_tTotal)) return (_rTotal, _tTotal);
        return (rSupply, tSupply);
    }
    
    function _takeLiquidity(uint256 tLiquidity) private {
        uint256 currentRate =  _getRate();
        uint256 rLiquidity = tLiquidity.mul(currentRate);
        _rOwned[address(this)] = _rOwned[address(this)].add(rLiquidity);
        if(_isExcluded[address(this)])
            _tOwned[address(this)] = _tOwned[address(this)].add(tLiquidity);
    }
    
    function calculateTaxFee(uint256 _amount) private view returns (uint256) {
        return _amount.mul(_taxFee).div(
            10**2
        );
    }

    function calculateLiquidityFee(uint256 _amount) private view returns (uint256) {
        return _amount.mul(_liquidityFee).div(
            10**2
        );
    }
    
    function removeAllFee() private {
        if(_taxFee == 0 && _liquidityFee == 0) return;
        
        _previousTaxFee = _taxFee;
        _previousLiquidityFee = _liquidityFee;
        
        _taxFee = 0;
        _liquidityFee = 0;
    }
    
    function restoreAllFee() private {
        _taxFee = _previousTaxFee;
        _liquidityFee = _previousLiquidityFee;
    }
    
    function isExcludedFromFee(address account) public view returns(bool) {
        return _isExcludedFromFee[account];
    }

    function _approve(address owner, address spender, uint256 amount) private {
        require(owner != address(0), "ERC20: approve from the zero address");
        require(spender != address(0), "ERC20: approve to the zero address");

        _allowances[owner][spender] = amount;
        emit Approval(owner, spender, amount);
    }

    function _transfer(
        address from,
        address to,
        uint256 amount
    ) private {
        require(from != address(0), "ERC20: transfer from the zero address");
        require(to != address(0), "ERC20: transfer to the zero address");
        require(amount > 0, "Transfer amount must be greater than zero");
        if(from != owner() && to != owner())
            require(amount <= _maxTxAmount, "Transfer amount exceeds the maxTxAmount.");

        // is the token balance of this contract address over the min number of
        // tokens that we need to initiate a swap + liquidity lock?
        // also, don't get caught in a circular liquidity event.
        // also, don't swap & liquify if sender is uniswap pair.
        uint256 contractTokenBalance = balanceOf(address(this));
        
        if(contractTokenBalance >= _maxTxAmount)
        {
            contractTokenBalance = _maxTxAmount;
        }
        
        bool overMinTokenBalance = contractTokenBalance >= numTokensSellToAddToLiquidity;
        if (
            overMinTokenBalance &&
            !inSwapAndLiquify &&
            from != uniswapV2Pair &&
            swapAndLiquifyEnabled
        ) {
            contractTokenBalance = numTokensSellToAddToLiquidity;
            //add liquidity
            swapAndLiquify(contractTokenBalance);
        }
        
        //indicates if fee should be deducted from transfer
        bool takeFee = true;
        
        //if any account belongs to _isExcludedFromFee account then remove the fee
        if(_isExcludedFromFee[from] || _isExcludedFromFee[to]){
            takeFee = false;
        }
        
        //transfer amount, it will take tax, burn, liquidity fee
        _tokenTransfer(from,to,amount,takeFee);
    }

    function swapAndLiquify(uint256 contractTokenBalance) private lockTheSwap {
        // split the contract balance into halves
        uint256 half = contractTokenBalance.div(2);
        uint256 otherHalf = contractTokenBalance.sub(half);

        // capture the contract's current ETH balance.
        // this is so that we can capture exactly the amount of ETH that the
        // swap creates, and not make the liquidity event include any ETH that
        // has been manually sent to the contract
        uint256 initialBalance = address(this).balance;

        // swap tokens for ETH
        swapTokensForEth(half); // <- this breaks the ETH -> HATE swap when swap+liquify is triggered

        // how much ETH did we just swap into?
        uint256 newBalance = address(this).balance.sub(initialBalance);

        // add liquidity to uniswap
        addLiquidity(otherHalf, newBalance);
        
        emit SwapAndLiquify(half, newBalance, otherHalf);
    }

    function swapTokensForEth(uint256 tokenAmount) private {
        // generate the uniswap pair path of token -> weth
        address[] memory path = new address[](2);
        path[0] = address(this);
        path[1] = uniswapV2Router.WETH();

        _approve(address(this), address(uniswapV2Router), tokenAmount);

        // make the swap
        uniswapV2Router.swapExactTokensForETHSupportingFeeOnTransferTokens(
            tokenAmount,
            0, // accept any amount of ETH
            path,
            address(this),
            block.timestamp
        );
    }

    function addLiquidity(uint256 tokenAmount, uint256 ethAmount) private {
        // approve token transfer to cover all possible scenarios
        _approve(address(this), address(uniswapV2Router), tokenAmount);

        // add the liquidity
        uniswapV2Router.addLiquidityETH{value: ethAmount}(
            address(this),
            tokenAmount,
            0, // slippage is unavoidable
            0, // slippage is unavoidable
            owner(),
            block.timestamp
        );
    }

    //this method is responsible for taking all fee, if takeFee is true
    function _tokenTransfer(address sender, address recipient, uint256 amount,bool takeFee) private {
        if(!takeFee)
            removeAllFee();
        
        if (_isExcluded[sender] && !_isExcluded[recipient]) {
            _transferFromExcluded(sender, recipient, amount);
        } else if (!_isExcluded[sender] && _isExcluded[recipient]) {
            _transferToExcluded(sender, recipient, amount);
        } else if (!_isExcluded[sender] && !_isExcluded[recipient]) {
            _transferStandard(sender, recipient, amount);
        } else if (_isExcluded[sender] && _isExcluded[recipient]) {
            _transferBothExcluded(sender, recipient, amount);
        } else {
            _transferStandard(sender, recipient, amount);
        }
        
        if(!takeFee)
            restoreAllFee();
    }

    function _transferStandard(address sender, address recipient, uint256 tAmount) private {
        (uint256 rAmount, uint256 rTransferAmount, uint256 rFee, uint256 tTransferAmount, uint256 tFee, uint256 tLiquidity) = _getValues(tAmount);
        _rOwned[sender] = _rOwned[sender].sub(rAmount);
        _rOwned[recipient] = _rOwned[recipient].add(rTransferAmount);
        _takeLiquidity(tLiquidity);
        _reflectFee(rFee, tFee);
        emit Transfer(sender, recipient, tTransferAmount);
    }

    function _transferToExcluded(address sender, address recipient, uint256 tAmount) private {
        (uint256 rAmount, uint256 rTransferAmount, uint256 rFee, uint256 tTransferAmount, uint256 tFee, uint256 tLiquidity) = _getValues(tAmount);
        _rOwned[sender] = _rOwned[sender].sub(rAmount);
        _tOwned[recipient] = _tOwned[recipient].add(tTransferAmount);
        _rOwned[recipient] = _rOwned[recipient].add(rTransferAmount);           
        _takeLiquidity(tLiquidity);
        _reflectFee(rFee, tFee);
        emit Transfer(sender, recipient, tTransferAmount);
    }

    function _transferFromExcluded(address sender, address recipient, uint256 tAmount) private {
        (uint256 rAmount, uint256 rTransferAmount, uint256 rFee, uint256 tTransferAmount, uint256 tFee, uint256 tLiquidity) = _getValues(tAmount);
        _tOwned[sender] = _tOwned[sender].sub(tAmount);
        _rOwned[sender] = _rOwned[sender].sub(rAmount);
        _rOwned[recipient] = _rOwned[recipient].add(rTransferAmount);   
        _takeLiquidity(tLiquidity);
        _reflectFee(rFee, tFee);
        emit Transfer(sender, recipient, tTransferAmount);
    }


    

}

Contract Security Audit

Contract ABI

[{"inputs":[],"stateMutability":"nonpayable","type":"constructor"},{"anonymous":false,"inputs":[{"indexed":true,"internalType":"address","name":"owner","type":"address"},{"indexed":true,"internalType":"address","name":"spender","type":"address"},{"indexed":false,"internalType":"uint256","name":"value","type":"uint256"}],"name":"Approval","type":"event"},{"anonymous":false,"inputs":[{"indexed":false,"internalType":"uint256","name":"minTokensBeforeSwap","type":"uint256"}],"name":"MinTokensBeforeSwapUpdated","type":"event"},{"anonymous":false,"inputs":[{"indexed":true,"internalType":"address","name":"previousOwner","type":"address"},{"indexed":true,"internalType":"address","name":"newOwner","type":"address"}],"name":"OwnershipTransferred","type":"event"},{"anonymous":false,"inputs":[{"indexed":false,"internalType":"uint256","name":"tokensSwapped","type":"uint256"},{"indexed":false,"internalType":"uint256","name":"ethReceived","type":"uint256"},{"indexed":false,"internalType":"uint256","name":"tokensIntoLiqudity","type":"uint256"}],"name":"SwapAndLiquify","type":"event"},{"anonymous":false,"inputs":[{"indexed":false,"internalType":"bool","name":"enabled","type":"bool"}],"name":"SwapAndLiquifyEnabledUpdated","type":"event"},{"anonymous":false,"inputs":[{"indexed":true,"internalType":"address","name":"from","type":"address"},{"indexed":true,"internalType":"address","name":"to","type":"address"},{"indexed":false,"internalType":"uint256","name":"value","type":"uint256"}],"name":"Transfer","type":"event"},{"inputs":[],"name":"_liquidityFee","outputs":[{"internalType":"uint256","name":"","type":"uint256"}],"stateMutability":"view","type":"function"},{"inputs":[],"name":"_maxTxAmount","outputs":[{"internalType":"uint256","name":"","type":"uint256"}],"stateMutability":"view","type":"function"},{"inputs":[],"name":"_taxFee","outputs":[{"internalType":"uint256","name":"","type":"uint256"}],"stateMutability":"view","type":"function"},{"inputs":[{"internalType":"address","name":"owner","type":"address"},{"internalType":"address","name":"spender","type":"address"}],"name":"allowance","outputs":[{"internalType":"uint256","name":"","type":"uint256"}],"stateMutability":"view","type":"function"},{"inputs":[{"internalType":"address","name":"spender","type":"address"},{"internalType":"uint256","name":"amount","type":"uint256"}],"name":"approve","outputs":[{"internalType":"bool","name":"","type":"bool"}],"stateMutability":"nonpayable","type":"function"},{"inputs":[{"internalType":"address","name":"account","type":"address"}],"name":"balanceOf","outputs":[{"internalType":"uint256","name":"","type":"uint256"}],"stateMutability":"view","type":"function"},{"inputs":[],"name":"decimals","outputs":[{"internalType":"uint8","name":"","type":"uint8"}],"stateMutability":"view","type":"function"},{"inputs":[{"internalType":"address","name":"spender","type":"address"},{"internalType":"uint256","name":"subtractedValue","type":"uint256"}],"name":"decreaseAllowance","outputs":[{"internalType":"bool","name":"","type":"bool"}],"stateMutability":"nonpayable","type":"function"},{"inputs":[{"internalType":"uint256","name":"tAmount","type":"uint256"}],"name":"deliver","outputs":[],"stateMutability":"nonpayable","type":"function"},{"inputs":[{"internalType":"address","name":"account","type":"address"}],"name":"excludeFromFee","outputs":[],"stateMutability":"nonpayable","type":"function"},{"inputs":[{"internalType":"address","name":"account","type":"address"}],"name":"excludeFromReward","outputs":[],"stateMutability":"nonpayable","type":"function"},{"inputs":[],"name":"geUnlockTime","outputs":[{"internalType":"uint256","name":"","type":"uint256"}],"stateMutability":"view","type":"function"},{"inputs":[{"internalType":"address","name":"account","type":"address"}],"name":"includeInFee","outputs":[],"stateMutability":"nonpayable","type":"function"},{"inputs":[{"internalType":"address","name":"account","type":"address"}],"name":"includeInReward","outputs":[],"stateMutability":"nonpayable","type":"function"},{"inputs":[{"internalType":"address","name":"spender","type":"address"},{"internalType":"uint256","name":"addedValue","type":"uint256"}],"name":"increaseAllowance","outputs":[{"internalType":"bool","name":"","type":"bool"}],"stateMutability":"nonpayable","type":"function"},{"inputs":[{"internalType":"address","name":"account","type":"address"}],"name":"isExcludedFromFee","outputs":[{"internalType":"bool","name":"","type":"bool"}],"stateMutability":"view","type":"function"},{"inputs":[{"internalType":"address","name":"account","type":"address"}],"name":"isExcludedFromReward","outputs":[{"internalType":"bool","name":"","type":"bool"}],"stateMutability":"view","type":"function"},{"inputs":[{"internalType":"uint256","name":"time","type":"uint256"}],"name":"lock","outputs":[],"stateMutability":"nonpayable","type":"function"},{"inputs":[],"name":"name","outputs":[{"internalType":"string","name":"","type":"string"}],"stateMutability":"view","type":"function"},{"inputs":[],"name":"owner","outputs":[{"internalType":"address","name":"","type":"address"}],"stateMutability":"view","type":"function"},{"inputs":[{"internalType":"uint256","name":"tAmount","type":"uint256"},{"internalType":"bool","name":"deductTransferFee","type":"bool"}],"name":"reflectionFromToken","outputs":[{"internalType":"uint256","name":"","type":"uint256"}],"stateMutability":"view","type":"function"},{"inputs":[],"name":"renounceOwnership","outputs":[],"stateMutability":"nonpayable","type":"function"},{"inputs":[{"internalType":"uint256","name":"liquidityFee","type":"uint256"}],"name":"setLiquidityFeePercent","outputs":[],"stateMutability":"nonpayable","type":"function"},{"inputs":[{"internalType":"uint256","name":"maxTxPercent","type":"uint256"}],"name":"setMaxTxPercent","outputs":[],"stateMutability":"nonpayable","type":"function"},{"inputs":[{"internalType":"bool","name":"_enabled","type":"bool"}],"name":"setSwapAndLiquifyEnabled","outputs":[],"stateMutability":"nonpayable","type":"function"},{"inputs":[{"internalType":"uint256","name":"taxFee","type":"uint256"}],"name":"setTaxFeePercent","outputs":[],"stateMutability":"nonpayable","type":"function"},{"inputs":[],"name":"swapAndLiquifyEnabled","outputs":[{"internalType":"bool","name":"","type":"bool"}],"stateMutability":"view","type":"function"},{"inputs":[],"name":"symbol","outputs":[{"internalType":"string","name":"","type":"string"}],"stateMutability":"view","type":"function"},{"inputs":[{"internalType":"uint256","name":"rAmount","type":"uint256"}],"name":"tokenFromReflection","outputs":[{"internalType":"uint256","name":"","type":"uint256"}],"stateMutability":"view","type":"function"},{"inputs":[],"name":"totalFees","outputs":[{"internalType":"uint256","name":"","type":"uint256"}],"stateMutability":"view","type":"function"},{"inputs":[],"name":"totalSupply","outputs":[{"internalType":"uint256","name":"","type":"uint256"}],"stateMutability":"view","type":"function"},{"inputs":[{"internalType":"address","name":"recipient","type":"address"},{"internalType":"uint256","name":"amount","type":"uint256"}],"name":"transfer","outputs":[{"internalType":"bool","name":"","type":"bool"}],"stateMutability":"nonpayable","type":"function"},{"inputs":[{"internalType":"address","name":"sender","type":"address"},{"internalType":"address","name":"recipient","type":"address"},{"internalType":"uint256","name":"amount","type":"uint256"}],"name":"transferFrom","outputs":[{"internalType":"bool","name":"","type":"bool"}],"stateMutability":"nonpayable","type":"function"},{"inputs":[{"internalType":"address","name":"newOwner","type":"address"}],"name":"transferOwnership","outputs":[],"stateMutability":"nonpayable","type":"function"},{"inputs":[],"name":"uniswapV2Pair","outputs":[{"internalType":"address","name":"","type":"address"}],"stateMutability":"view","type":"function"},{"inputs":[],"name":"uniswapV2Router","outputs":[{"internalType":"contract IUniswapV2Router02","name":"","type":"address"}],"stateMutability":"view","type":"function"},{"inputs":[],"name":"unlock","outputs":[],"stateMutability":"nonpayable","type":"function"},{"stateMutability":"payable","type":"receive"}]

60c060405269d3c21bcecceda1000000600955600954600019816200002057fe5b0660001903600a556040518060400160405280600881526020017f456c6f6e47617465000000000000000000000000000000000000000000000000815250600c908051906020019062000075929190620005fe565b506040518060400160405280600881526020017f456c6f6e47617465000000000000000000000000000000000000000000000000815250600d9080519060200190620000c3929190620005fe565b506009600e60006101000a81548160ff021916908360ff1602179055506005600f55600f5460105560056011556011546012556001601360016101000a81548160ff02191690831515021790555069010f0cf064dd59200000601455681b1ae4d6e2ef5000006015553480156200013957600080fd5b5060006200014c620005cd60201b60201c565b9050806000806101000a81548173ffffffffffffffffffffffffffffffffffffffff021916908373ffffffffffffffffffffffffffffffffffffffff1602179055508073ffffffffffffffffffffffffffffffffffffffff16600073ffffffffffffffffffffffffffffffffffffffff167f8be0079c531659141344cd1fd0a4f28419497f9722a3daafe3b4186f6b6457e060405160405180910390a350600a546003600062000201620005cd60201b60201c565b73ffffffffffffffffffffffffffffffffffffffff1673ffffffffffffffffffffffffffffffffffffffff1681526020019081526020016000208190555060007305ff2b0db69458a0750badebc4f9e13add608c7f90508073ffffffffffffffffffffffffffffffffffffffff1663c45a01556040518163ffffffff1660e01b815260040160206040518083038186803b1580156200029f57600080fd5b505afa158015620002b4573d6000803e3d6000fd5b505050506040513d6020811015620002cb57600080fd5b810190808051906020019092919050505073ffffffffffffffffffffffffffffffffffffffff1663c9c65396308373ffffffffffffffffffffffffffffffffffffffff1663ad5c46486040518163ffffffff1660e01b815260040160206040518083038186803b1580156200033f57600080fd5b505afa15801562000354573d6000803e3d6000fd5b505050506040513d60208110156200036b57600080fd5b81019080805190602001909291905050506040518363ffffffff1660e01b8152600401808373ffffffffffffffffffffffffffffffffffffffff1681526020018273ffffffffffffffffffffffffffffffffffffffff16815260200192505050602060405180830381600087803b158015620003e657600080fd5b505af1158015620003fb573d6000803e3d6000fd5b505050506040513d60208110156200041257600080fd5b810190808051906020019092919050505073ffffffffffffffffffffffffffffffffffffffff1660a08173ffffffffffffffffffffffffffffffffffffffff1660601b815250508073ffffffffffffffffffffffffffffffffffffffff1660808173ffffffffffffffffffffffffffffffffffffffff1660601b81525050600160066000620004a6620005d560201b60201c565b73ffffffffffffffffffffffffffffffffffffffff1673ffffffffffffffffffffffffffffffffffffffff16815260200190815260200160002060006101000a81548160ff0219169083151502179055506001600660003073ffffffffffffffffffffffffffffffffffffffff1673ffffffffffffffffffffffffffffffffffffffff16815260200190815260200160002060006101000a81548160ff0219169083151502179055506200055f620005cd60201b60201c565b73ffffffffffffffffffffffffffffffffffffffff16600073ffffffffffffffffffffffffffffffffffffffff167fddf252ad1be2c89b69c2b068fc378daa952ba7f163c4a11628f55a4df523b3ef6009546040518082815260200191505060405180910390a350620006a4565b600033905090565b60008060009054906101000a900473ffffffffffffffffffffffffffffffffffffffff16905090565b828054600181600116156101000203166002900490600052602060002090601f016020900481019282601f106200064157805160ff191683800117855562000672565b8280016001018555821562000672579182015b828111156200067157825182559160200191906001019062000654565b5b50905062000681919062000685565b5090565b5b80821115620006a057600081600090555060010162000686565b5090565b60805160601c60a05160601c614e2d620006ec600039806118365280612f9e525080610ee65280613c8a5280613d765280613d9d5280613ea85280613ecf5250614e2d6000f3fe60806040526004361061021e5760003560e01c80635342acb411610123578063a457c2d7116100ab578063d543dbeb1161006f578063d543dbeb14610bab578063dd46706414610be6578063dd62ed3e14610c21578063ea2f0b3714610ca6578063f2fde38b14610cf757610225565b8063a457c2d714610a4a578063a69df4b514610abb578063a9059cbb14610ad2578063b6c5232414610b43578063c49b9a8014610b6e57610225565b80637d1db4a5116100f25780637d1db4a5146108ac57806388f82020146108d75780638da5cb5b1461093e5780638ee88c531461097f57806395d89b41146109ba57610225565b80635342acb41461079e5780636bc87c3a1461080557806370a0823114610830578063715018a61461089557610225565b80633685d419116101a6578063437823ec11610175578063437823ec146106335780634549b0391461068457806349bd5a5e146106df5780634a74bb021461072057806352390c021461074d57610225565b80633685d4191461050b578063395093511461055c5780633b124fe7146105cd5780633bd5d173146105f857610225565b80631694505e116101ed5780631694505e1461039157806318160ddd146103d257806323b872dd146103fd5780632d8381191461048e578063313ce567146104dd57610225565b8063061c82d01461022a57806306fdde0314610265578063095ea7b3146102f557806313114a9d1461036657610225565b3661022557005b600080fd5b34801561023657600080fd5b506102636004803603602081101561024d57600080fd5b8101908080359060200190929190505050610d48565b005b34801561027157600080fd5b5061027a610e1a565b6040518080602001828103825283818151815260200191508051906020019080838360005b838110156102ba57808201518184015260208101905061029f565b50505050905090810190601f1680156102e75780820380516001836020036101000a031916815260200191505b509250505060405180910390f35b34801561030157600080fd5b5061034e6004803603604081101561031857600080fd5b81019080803573ffffffffffffffffffffffffffffffffffffffff16906020019092919080359060200190929190505050610ebc565b60405180821515815260200191505060405180910390f35b34801561037257600080fd5b5061037b610eda565b6040518082815260200191505060405180910390f35b34801561039d57600080fd5b506103a6610ee4565b604051808273ffffffffffffffffffffffffffffffffffffffff16815260200191505060405180910390f35b3480156103de57600080fd5b506103e7610f08565b6040518082815260200191505060405180910390f35b34801561040957600080fd5b506104766004803603606081101561042057600080fd5b81019080803573ffffffffffffffffffffffffffffffffffffffff169060200190929190803573ffffffffffffffffffffffffffffffffffffffff16906020019092919080359060200190929190505050610f12565b60405180821515815260200191505060405180910390f35b34801561049a57600080fd5b506104c7600480360360208110156104b157600080fd5b8101908080359060200190929190505050610feb565b6040518082815260200191505060405180910390f35b3480156104e957600080fd5b506104f261106f565b604051808260ff16815260200191505060405180910390f35b34801561051757600080fd5b5061055a6004803603602081101561052e57600080fd5b81019080803573ffffffffffffffffffffffffffffffffffffffff169060200190929190505050611086565b005b34801561056857600080fd5b506105b56004803603604081101561057f57600080fd5b81019080803573ffffffffffffffffffffffffffffffffffffffff16906020019092919080359060200190929190505050611410565b60405180821515815260200191505060405180910390f35b3480156105d957600080fd5b506105e26114c3565b6040518082815260200191505060405180910390f35b34801561060457600080fd5b506106316004803603602081101561061b57600080fd5b81019080803590602001909291905050506114c9565b005b34801561063f57600080fd5b506106826004803603602081101561065657600080fd5b81019080803573ffffffffffffffffffffffffffffffffffffffff16906020019092919050505061165a565b005b34801561069057600080fd5b506106c9600480360360408110156106a757600080fd5b810190808035906020019092919080351515906020019092919050505061177d565b6040518082815260200191505060405180910390f35b3480156106eb57600080fd5b506106f4611834565b604051808273ffffffffffffffffffffffffffffffffffffffff16815260200191505060405180910390f35b34801561072c57600080fd5b50610735611858565b60405180821515815260200191505060405180910390f35b34801561075957600080fd5b5061079c6004803603602081101561077057600080fd5b81019080803573ffffffffffffffffffffffffffffffffffffffff16906020019092919050505061186b565b005b3480156107aa57600080fd5b506107ed600480360360208110156107c157600080fd5b81019080803573ffffffffffffffffffffffffffffffffffffffff169060200190929190505050611b85565b60405180821515815260200191505060405180910390f35b34801561081157600080fd5b5061081a611bdb565b6040518082815260200191505060405180910390f35b34801561083c57600080fd5b5061087f6004803603602081101561085357600080fd5b81019080803573ffffffffffffffffffffffffffffffffffffffff169060200190929190505050611be1565b6040518082815260200191505060405180910390f35b3480156108a157600080fd5b506108aa611ccc565b005b3480156108b857600080fd5b506108c1611e52565b6040518082815260200191505060405180910390f35b3480156108e357600080fd5b50610926600480360360208110156108fa57600080fd5b81019080803573ffffffffffffffffffffffffffffffffffffffff169060200190929190505050611e58565b60405180821515815260200191505060405180910390f35b34801561094a57600080fd5b50610953611eae565b604051808273ffffffffffffffffffffffffffffffffffffffff16815260200191505060405180910390f35b34801561098b57600080fd5b506109b8600480360360208110156109a257600080fd5b8101908080359060200190929190505050611ed7565b005b3480156109c657600080fd5b506109cf611fa9565b6040518080602001828103825283818151815260200191508051906020019080838360005b83811015610a0f5780820151818401526020810190506109f4565b50505050905090810190601f168015610a3c5780820380516001836020036101000a031916815260200191505b509250505060405180910390f35b348015610a5657600080fd5b50610aa360048036036040811015610a6d57600080fd5b81019080803573ffffffffffffffffffffffffffffffffffffffff1690602001909291908035906020019092919050505061204b565b60405180821515815260200191505060405180910390f35b348015610ac757600080fd5b50610ad0612118565b005b348015610ade57600080fd5b50610b2b60048036036040811015610af557600080fd5b81019080803573ffffffffffffffffffffffffffffffffffffffff16906020019092919080359060200190929190505050612335565b60405180821515815260200191505060405180910390f35b348015610b4f57600080fd5b50610b58612353565b6040518082815260200191505060405180910390f35b348015610b7a57600080fd5b50610ba960048036036020811015610b9157600080fd5b8101908080351515906020019092919050505061235d565b005b348015610bb757600080fd5b50610be460048036036020811015610bce57600080fd5b810190808035906020019092919050505061247b565b005b348015610bf257600080fd5b50610c1f60048036036020811015610c0957600080fd5b8101908080359060200190929190505050612574565b005b348015610c2d57600080fd5b50610c9060048036036040811015610c4457600080fd5b81019080803573ffffffffffffffffffffffffffffffffffffffff169060200190929190803573ffffffffffffffffffffffffffffffffffffffff169060200190929190505050612765565b6040518082815260200191505060405180910390f35b348015610cb257600080fd5b50610cf560048036036020811015610cc957600080fd5b81019080803573ffffffffffffffffffffffffffffffffffffffff1690602001909291905050506127ec565b005b348015610d0357600080fd5b50610d4660048036036020811015610d1a57600080fd5b81019080803573ffffffffffffffffffffffffffffffffffffffff16906020019092919050505061290f565b005b610d50612b1a565b73ffffffffffffffffffffffffffffffffffffffff1660008054906101000a900473ffffffffffffffffffffffffffffffffffffffff1673ffffffffffffffffffffffffffffffffffffffff1614610e10576040517f08c379a00000000000000000000000000000000000000000000000000000000081526004018080602001828103825260208152602001807f4f776e61626c653a2063616c6c6572206973206e6f7420746865206f776e657281525060200191505060405180910390fd5b80600f8190555050565b6060600c8054600181600116156101000203166002900480601f016020809104026020016040519081016040528092919081815260200182805460018160011615610100020316600290048015610eb25780601f10610e8757610100808354040283529160200191610eb2565b820191906000526020600020905b815481529060010190602001808311610e9557829003601f168201915b5050505050905090565b6000610ed0610ec9612b1a565b8484612b22565b6001905092915050565b6000600b54905090565b7f000000000000000000000000000000000000000000000000000000000000000081565b6000600954905090565b6000610f1f848484612d19565b610fe084610f2b612b1a565b610fdb85604051806060016040528060288152602001614cea60289139600560008b73ffffffffffffffffffffffffffffffffffffffff1673ffffffffffffffffffffffffffffffffffffffff1681526020019081526020016000206000610f91612b1a565b73ffffffffffffffffffffffffffffffffffffffff1673ffffffffffffffffffffffffffffffffffffffff168152602001908152602001600020546130de9092919063ffffffff16565b612b22565b600190509392505050565b6000600a54821115611048576040517f08c379a000000000000000000000000000000000000000000000000000000000815260040180806020018281038252602a815260200180614c2f602a913960400191505060405180910390fd5b600061105261319e565b905061106781846131c990919063ffffffff16565b915050919050565b6000600e60009054906101000a900460ff16905090565b61108e612b1a565b73ffffffffffffffffffffffffffffffffffffffff1660008054906101000a900473ffffffffffffffffffffffffffffffffffffffff1673ffffffffffffffffffffffffffffffffffffffff161461114e576040517f08c379a00000000000000000000000000000000000000000000000000000000081526004018080602001828103825260208152602001807f4f776e61626c653a2063616c6c6572206973206e6f7420746865206f776e657281525060200191505060405180910390fd5b600760008273ffffffffffffffffffffffffffffffffffffffff1673ffffffffffffffffffffffffffffffffffffffff16815260200190815260200160002060009054906101000a900460ff1661120d576040517f08c379a000000000000000000000000000000000000000000000000000000000815260040180806020018281038252601b8152602001807f4163636f756e7420697320616c7265616479206578636c75646564000000000081525060200191505060405180910390fd5b60005b60088054905081101561140c578173ffffffffffffffffffffffffffffffffffffffff166008828154811061124157fe5b9060005260206000200160009054906101000a900473ffffffffffffffffffffffffffffffffffffffff1673ffffffffffffffffffffffffffffffffffffffff1614156113ff5760086001600880549050038154811061129d57fe5b9060005260206000200160009054906101000a900473ffffffffffffffffffffffffffffffffffffffff16600882815481106112d557fe5b9060005260206000200160006101000a81548173ffffffffffffffffffffffffffffffffffffffff021916908373ffffffffffffffffffffffffffffffffffffffff1602179055506000600460008473ffffffffffffffffffffffffffffffffffffffff1673ffffffffffffffffffffffffffffffffffffffff168152602001908152602001600020819055506000600760008473ffffffffffffffffffffffffffffffffffffffff1673ffffffffffffffffffffffffffffffffffffffff16815260200190815260200160002060006101000a81548160ff02191690831515021790555060088054806113c557fe5b6001900381819060005260206000200160006101000a81549073ffffffffffffffffffffffffffffffffffffffff0219169055905561140c565b8080600101915050611210565b5050565b60006114b961141d612b1a565b846114b4856005600061142e612b1a565b73ffffffffffffffffffffffffffffffffffffffff1673ffffffffffffffffffffffffffffffffffffffff16815260200190815260200160002060008973ffffffffffffffffffffffffffffffffffffffff1673ffffffffffffffffffffffffffffffffffffffff1681526020019081526020016000205461321390919063ffffffff16565b612b22565b6001905092915050565b600f5481565b60006114d3612b1a565b9050600760008273ffffffffffffffffffffffffffffffffffffffff1673ffffffffffffffffffffffffffffffffffffffff16815260200190815260200160002060009054906101000a900460ff1615611578576040517f08c379a000000000000000000000000000000000000000000000000000000000815260040180806020018281038252602c815260200180614d84602c913960400191505060405180910390fd5b60006115838361329b565b505050505090506115dc81600360008573ffffffffffffffffffffffffffffffffffffffff1673ffffffffffffffffffffffffffffffffffffffff168152602001908152602001600020546132f790919063ffffffff16565b600360008473ffffffffffffffffffffffffffffffffffffffff1673ffffffffffffffffffffffffffffffffffffffff1681526020019081526020016000208190555061163481600a546132f790919063ffffffff16565b600a8190555061164f83600b5461321390919063ffffffff16565b600b81905550505050565b611662612b1a565b73ffffffffffffffffffffffffffffffffffffffff1660008054906101000a900473ffffffffffffffffffffffffffffffffffffffff1673ffffffffffffffffffffffffffffffffffffffff1614611722576040517f08c379a00000000000000000000000000000000000000000000000000000000081526004018080602001828103825260208152602001807f4f776e61626c653a2063616c6c6572206973206e6f7420746865206f776e657281525060200191505060405180910390fd5b6001600660008373ffffffffffffffffffffffffffffffffffffffff1673ffffffffffffffffffffffffffffffffffffffff16815260200190815260200160002060006101000a81548160ff02191690831515021790555050565b60006009548311156117f7576040517f08c379a000000000000000000000000000000000000000000000000000000000815260040180806020018281038252601f8152602001807f416d6f756e74206d757374206265206c657373207468616e20737570706c790081525060200191505060405180910390fd5b816118175760006118078461329b565b505050505090508091505061182e565b60006118228461329b565b50505050915050809150505b92915050565b7f000000000000000000000000000000000000000000000000000000000000000081565b601360019054906101000a900460ff1681565b611873612b1a565b73ffffffffffffffffffffffffffffffffffffffff1660008054906101000a900473ffffffffffffffffffffffffffffffffffffffff1673ffffffffffffffffffffffffffffffffffffffff1614611933576040517f08c379a00000000000000000000000000000000000000000000000000000000081526004018080602001828103825260208152602001807f4f776e61626c653a2063616c6c6572206973206e6f7420746865206f776e657281525060200191505060405180910390fd5b600760008273ffffffffffffffffffffffffffffffffffffffff1673ffffffffffffffffffffffffffffffffffffffff16815260200190815260200160002060009054906101000a900460ff16156119f3576040517f08c379a000000000000000000000000000000000000000000000000000000000815260040180806020018281038252601b8152602001807f4163636f756e7420697320616c7265616479206578636c75646564000000000081525060200191505060405180910390fd5b6000600360008373ffffffffffffffffffffffffffffffffffffffff1673ffffffffffffffffffffffffffffffffffffffff168152602001908152602001600020541115611ac757611a83600360008373ffffffffffffffffffffffffffffffffffffffff1673ffffffffffffffffffffffffffffffffffffffff16815260200190815260200160002054610feb565b600460008373ffffffffffffffffffffffffffffffffffffffff1673ffffffffffffffffffffffffffffffffffffffff168152602001908152602001600020819055505b6001600760008373ffffffffffffffffffffffffffffffffffffffff1673ffffffffffffffffffffffffffffffffffffffff16815260200190815260200160002060006101000a81548160ff0219169083151502179055506008819080600181540180825580915050600190039060005260206000200160009091909190916101000a81548173ffffffffffffffffffffffffffffffffffffffff021916908373ffffffffffffffffffffffffffffffffffffffff16021790555050565b6000600660008373ffffffffffffffffffffffffffffffffffffffff1673ffffffffffffffffffffffffffffffffffffffff16815260200190815260200160002060009054906101000a900460ff169050919050565b60115481565b6000600760008373ffffffffffffffffffffffffffffffffffffffff1673ffffffffffffffffffffffffffffffffffffffff16815260200190815260200160002060009054906101000a900460ff1615611c7c57600460008373ffffffffffffffffffffffffffffffffffffffff1673ffffffffffffffffffffffffffffffffffffffff168152602001908152602001600020549050611cc7565b611cc4600360008473ffffffffffffffffffffffffffffffffffffffff1673ffffffffffffffffffffffffffffffffffffffff16815260200190815260200160002054610feb565b90505b919050565b611cd4612b1a565b73ffffffffffffffffffffffffffffffffffffffff1660008054906101000a900473ffffffffffffffffffffffffffffffffffffffff1673ffffffffffffffffffffffffffffffffffffffff1614611d94576040517f08c379a00000000000000000000000000000000000000000000000000000000081526004018080602001828103825260208152602001807f4f776e61626c653a2063616c6c6572206973206e6f7420746865206f776e657281525060200191505060405180910390fd5b600073ffffffffffffffffffffffffffffffffffffffff1660008054906101000a900473ffffffffffffffffffffffffffffffffffffffff1673ffffffffffffffffffffffffffffffffffffffff167f8be0079c531659141344cd1fd0a4f28419497f9722a3daafe3b4186f6b6457e060405160405180910390a360008060006101000a81548173ffffffffffffffffffffffffffffffffffffffff021916908373ffffffffffffffffffffffffffffffffffffffff160217905550565b60145481565b6000600760008373ffffffffffffffffffffffffffffffffffffffff1673ffffffffffffffffffffffffffffffffffffffff16815260200190815260200160002060009054906101000a900460ff169050919050565b60008060009054906101000a900473ffffffffffffffffffffffffffffffffffffffff16905090565b611edf612b1a565b73ffffffffffffffffffffffffffffffffffffffff1660008054906101000a900473ffffffffffffffffffffffffffffffffffffffff1673ffffffffffffffffffffffffffffffffffffffff1614611f9f576040517f08c379a00000000000000000000000000000000000000000000000000000000081526004018080602001828103825260208152602001807f4f776e61626c653a2063616c6c6572206973206e6f7420746865206f776e657281525060200191505060405180910390fd5b8060118190555050565b6060600d8054600181600116156101000203166002900480601f0160208091040260200160405190810160405280929190818152602001828054600181600116156101000203166002900480156120415780601f1061201657610100808354040283529160200191612041565b820191906000526020600020905b81548152906001019060200180831161202457829003601f168201915b5050505050905090565b600061210e612058612b1a565b8461210985604051806060016040528060258152602001614dd36025913960056000612082612b1a565b73ffffffffffffffffffffffffffffffffffffffff1673ffffffffffffffffffffffffffffffffffffffff16815260200190815260200160002060008a73ffffffffffffffffffffffffffffffffffffffff1673ffffffffffffffffffffffffffffffffffffffff168152602001908152602001600020546130de9092919063ffffffff16565b612b22565b6001905092915050565b3373ffffffffffffffffffffffffffffffffffffffff16600160009054906101000a900473ffffffffffffffffffffffffffffffffffffffff1673ffffffffffffffffffffffffffffffffffffffff16146121be576040517f08c379a0000000000000000000000000000000000000000000000000000000008152600401808060200182810382526023815260200180614db06023913960400191505060405180910390fd5b6002544211612235576040517f08c379a000000000000000000000000000000000000000000000000000000000815260040180806020018281038252601f8152602001807f436f6e7472616374206973206c6f636b656420756e74696c203720646179730081525060200191505060405180910390fd5b600160009054906101000a900473ffffffffffffffffffffffffffffffffffffffff1673ffffffffffffffffffffffffffffffffffffffff1660008054906101000a900473ffffffffffffffffffffffffffffffffffffffff1673ffffffffffffffffffffffffffffffffffffffff167f8be0079c531659141344cd1fd0a4f28419497f9722a3daafe3b4186f6b6457e060405160405180910390a3600160009054906101000a900473ffffffffffffffffffffffffffffffffffffffff166000806101000a81548173ffffffffffffffffffffffffffffffffffffffff021916908373ffffffffffffffffffffffffffffffffffffffff160217905550565b6000612349612342612b1a565b8484612d19565b6001905092915050565b6000600254905090565b612365612b1a565b73ffffffffffffffffffffffffffffffffffffffff1660008054906101000a900473ffffffffffffffffffffffffffffffffffffffff1673ffffffffffffffffffffffffffffffffffffffff1614612425576040517f08c379a00000000000000000000000000000000000000000000000000000000081526004018080602001828103825260208152602001807f4f776e61626c653a2063616c6c6572206973206e6f7420746865206f776e657281525060200191505060405180910390fd5b80601360016101000a81548160ff0219169083151502179055507f53726dfcaf90650aa7eb35524f4d3220f07413c8d6cb404cc8c18bf5591bc1598160405180821515815260200191505060405180910390a150565b612483612b1a565b73ffffffffffffffffffffffffffffffffffffffff1660008054906101000a900473ffffffffffffffffffffffffffffffffffffffff1673ffffffffffffffffffffffffffffffffffffffff1614612543576040517f08c379a00000000000000000000000000000000000000000000000000000000081526004018080602001828103825260208152602001807f4f776e61626c653a2063616c6c6572206973206e6f7420746865206f776e657281525060200191505060405180910390fd5b61256b606461255d8360095461334190919063ffffffff16565b6131c990919063ffffffff16565b60148190555050565b61257c612b1a565b73ffffffffffffffffffffffffffffffffffffffff1660008054906101000a900473ffffffffffffffffffffffffffffffffffffffff1673ffffffffffffffffffffffffffffffffffffffff161461263c576040517f08c379a00000000000000000000000000000000000000000000000000000000081526004018080602001828103825260208152602001807f4f776e61626c653a2063616c6c6572206973206e6f7420746865206f776e657281525060200191505060405180910390fd5b60008054906101000a900473ffffffffffffffffffffffffffffffffffffffff16600160006101000a81548173ffffffffffffffffffffffffffffffffffffffff021916908373ffffffffffffffffffffffffffffffffffffffff16021790555060008060006101000a81548173ffffffffffffffffffffffffffffffffffffffff021916908373ffffffffffffffffffffffffffffffffffffffff160217905550804201600281905550600073ffffffffffffffffffffffffffffffffffffffff1660008054906101000a900473ffffffffffffffffffffffffffffffffffffffff1673ffffffffffffffffffffffffffffffffffffffff167f8be0079c531659141344cd1fd0a4f28419497f9722a3daafe3b4186f6b6457e060405160405180910390a350565b6000600560008473ffffffffffffffffffffffffffffffffffffffff1673ffffffffffffffffffffffffffffffffffffffff16815260200190815260200160002060008373ffffffffffffffffffffffffffffffffffffffff1673ffffffffffffffffffffffffffffffffffffffff16815260200190815260200160002054905092915050565b6127f4612b1a565b73ffffffffffffffffffffffffffffffffffffffff1660008054906101000a900473ffffffffffffffffffffffffffffffffffffffff1673ffffffffffffffffffffffffffffffffffffffff16146128b4576040517f08c379a00000000000000000000000000000000000000000000000000000000081526004018080602001828103825260208152602001807f4f776e61626c653a2063616c6c6572206973206e6f7420746865206f776e657281525060200191505060405180910390fd5b6000600660008373ffffffffffffffffffffffffffffffffffffffff1673ffffffffffffffffffffffffffffffffffffffff16815260200190815260200160002060006101000a81548160ff02191690831515021790555050565b612917612b1a565b73ffffffffffffffffffffffffffffffffffffffff1660008054906101000a900473ffffffffffffffffffffffffffffffffffffffff1673ffffffffffffffffffffffffffffffffffffffff16146129d7576040517f08c379a00000000000000000000000000000000000000000000000000000000081526004018080602001828103825260208152602001807f4f776e61626c653a2063616c6c6572206973206e6f7420746865206f776e657281525060200191505060405180910390fd5b600073ffffffffffffffffffffffffffffffffffffffff168173ffffffffffffffffffffffffffffffffffffffff161415612a5d576040517f08c379a0000000000000000000000000000000000000000000000000000000008152600401808060200182810382526026815260200180614c596026913960400191505060405180910390fd5b8073ffffffffffffffffffffffffffffffffffffffff1660008054906101000a900473ffffffffffffffffffffffffffffffffffffffff1673ffffffffffffffffffffffffffffffffffffffff167f8be0079c531659141344cd1fd0a4f28419497f9722a3daafe3b4186f6b6457e060405160405180910390a3806000806101000a81548173ffffffffffffffffffffffffffffffffffffffff021916908373ffffffffffffffffffffffffffffffffffffffff16021790555050565b600033905090565b600073ffffffffffffffffffffffffffffffffffffffff168373ffffffffffffffffffffffffffffffffffffffff161415612ba8576040517f08c379a0000000000000000000000000000000000000000000000000000000008152600401808060200182810382526024815260200180614d606024913960400191505060405180910390fd5b600073ffffffffffffffffffffffffffffffffffffffff168273ffffffffffffffffffffffffffffffffffffffff161415612c2e576040517f08c379a0000000000000000000000000000000000000000000000000000000008152600401808060200182810382526022815260200180614c7f6022913960400191505060405180910390fd5b80600560008573ffffffffffffffffffffffffffffffffffffffff1673ffffffffffffffffffffffffffffffffffffffff16815260200190815260200160002060008473ffffffffffffffffffffffffffffffffffffffff1673ffffffffffffffffffffffffffffffffffffffff168152602001908152602001600020819055508173ffffffffffffffffffffffffffffffffffffffff168373ffffffffffffffffffffffffffffffffffffffff167f8c5be1e5ebec7d5bd14f71427d1e84f3dd0314c0f7b2291e5b200ac8c7c3b925836040518082815260200191505060405180910390a3505050565b600073ffffffffffffffffffffffffffffffffffffffff168373ffffffffffffffffffffffffffffffffffffffff161415612d9f576040517f08c379a0000000000000000000000000000000000000000000000000000000008152600401808060200182810382526025815260200180614d3b6025913960400191505060405180910390fd5b600073ffffffffffffffffffffffffffffffffffffffff168273ffffffffffffffffffffffffffffffffffffffff161415612e25576040517f08c379a0000000000000000000000000000000000000000000000000000000008152600401808060200182810382526023815260200180614c0c6023913960400191505060405180910390fd5b60008111612e7e576040517f08c379a0000000000000000000000000000000000000000000000000000000008152600401808060200182810382526029815260200180614d126029913960400191505060405180910390fd5b612e86611eae565b73ffffffffffffffffffffffffffffffffffffffff168373ffffffffffffffffffffffffffffffffffffffff1614158015612ef45750612ec4611eae565b73ffffffffffffffffffffffffffffffffffffffff168273ffffffffffffffffffffffffffffffffffffffff1614155b15612f5557601454811115612f54576040517f08c379a0000000000000000000000000000000000000000000000000000000008152600401808060200182810382526028815260200180614ca16028913960400191505060405180910390fd5b5b6000612f6030611be1565b90506014548110612f715760145490505b60006015548210159050808015612f955750601360009054906101000a900460ff16155b8015612fed57507f000000000000000000000000000000000000000000000000000000000000000073ffffffffffffffffffffffffffffffffffffffff168573ffffffffffffffffffffffffffffffffffffffff1614155b80156130055750601360019054906101000a900460ff165b15613019576015549150613018826133c7565b5b600060019050600660008773ffffffffffffffffffffffffffffffffffffffff1673ffffffffffffffffffffffffffffffffffffffff16815260200190815260200160002060009054906101000a900460ff16806130c05750600660008673ffffffffffffffffffffffffffffffffffffffff1673ffffffffffffffffffffffffffffffffffffffff16815260200190815260200160002060009054906101000a900460ff165b156130ca57600090505b6130d6868686846134a9565b505050505050565b600083831115829061318b576040517f08c379a00000000000000000000000000000000000000000000000000000000081526004018080602001828103825283818151815260200191508051906020019080838360005b83811015613150578082015181840152602081019050613135565b50505050905090810190601f16801561317d5780820380516001836020036101000a031916815260200191505b509250505060405180910390fd5b5060008385039050809150509392505050565b60008060006131ab6137ba565b915091506131c281836131c990919063ffffffff16565b9250505090565b600061320b83836040518060400160405280601a81526020017f536166654d6174683a206469766973696f6e206279207a65726f000000000000815250613a4b565b905092915050565b600080828401905083811015613291576040517f08c379a000000000000000000000000000000000000000000000000000000000815260040180806020018281038252601b8152602001807f536166654d6174683a206164646974696f6e206f766572666c6f77000000000081525060200191505060405180910390fd5b8091505092915050565b60008060008060008060008060006132b28a613b11565b92509250925060008060006132d08d86866132cb61319e565b613b6b565b9250925092508282828888889b509b509b509b509b509b5050505050505091939550919395565b600061333983836040518060400160405280601e81526020017f536166654d6174683a207375627472616374696f6e206f766572666c6f7700008152506130de565b905092915050565b60008083141561335457600090506133c1565b600082840290508284828161336557fe5b04146133bc576040517f08c379a0000000000000000000000000000000000000000000000000000000008152600401808060200182810382526021815260200180614cc96021913960400191505060405180910390fd5b809150505b92915050565b6001601360006101000a81548160ff02191690831515021790555060006133f86002836131c990919063ffffffff16565b9050600061340f82846132f790919063ffffffff16565b9050600047905061341f83613bf4565b600061343482476132f790919063ffffffff16565b90506134408382613ea2565b7f17bbfb9a6069321b6ded73bd96327c9e6b7212a5cd51ff219cd61370acafb56184828560405180848152602001838152602001828152602001935050505060405180910390a1505050506000601360006101000a81548160ff02191690831515021790555050565b806134b7576134b6613ff3565b5b600760008573ffffffffffffffffffffffffffffffffffffffff1673ffffffffffffffffffffffffffffffffffffffff16815260200190815260200160002060009054906101000a900460ff16801561355a5750600760008473ffffffffffffffffffffffffffffffffffffffff1673ffffffffffffffffffffffffffffffffffffffff16815260200190815260200160002060009054906101000a900460ff16155b1561356f5761356a848484614036565b6137a6565b600760008573ffffffffffffffffffffffffffffffffffffffff1673ffffffffffffffffffffffffffffffffffffffff16815260200190815260200160002060009054906101000a900460ff161580156136125750600760008473ffffffffffffffffffffffffffffffffffffffff1673ffffffffffffffffffffffffffffffffffffffff16815260200190815260200160002060009054906101000a900460ff165b1561362757613622848484614296565b6137a5565b600760008573ffffffffffffffffffffffffffffffffffffffff1673ffffffffffffffffffffffffffffffffffffffff16815260200190815260200160002060009054906101000a900460ff161580156136cb5750600760008473ffffffffffffffffffffffffffffffffffffffff1673ffffffffffffffffffffffffffffffffffffffff16815260200190815260200160002060009054906101000a900460ff16155b156136e0576136db8484846144f6565b6137a4565b600760008573ffffffffffffffffffffffffffffffffffffffff1673ffffffffffffffffffffffffffffffffffffffff16815260200190815260200160002060009054906101000a900460ff1680156137825750600760008473ffffffffffffffffffffffffffffffffffffffff1673ffffffffffffffffffffffffffffffffffffffff16815260200190815260200160002060009054906101000a900460ff165b15613797576137928484846146c1565b6137a3565b6137a28484846144f6565b5b5b5b5b806137b4576137b36149b6565b5b50505050565b6000806000600a5490506000600954905060005b600880549050811015613a0e578260036000600884815481106137ed57fe5b9060005260206000200160009054906101000a900473ffffffffffffffffffffffffffffffffffffffff1673ffffffffffffffffffffffffffffffffffffffff1673ffffffffffffffffffffffffffffffffffffffff1681526020019081526020016000205411806138d4575081600460006008848154811061386c57fe5b9060005260206000200160009054906101000a900473ffffffffffffffffffffffffffffffffffffffff1673ffffffffffffffffffffffffffffffffffffffff1673ffffffffffffffffffffffffffffffffffffffff16815260200190815260200160002054115b156138eb57600a5460095494509450505050613a47565b61397460036000600884815481106138ff57fe5b9060005260206000200160009054906101000a900473ffffffffffffffffffffffffffffffffffffffff1673ffffffffffffffffffffffffffffffffffffffff1673ffffffffffffffffffffffffffffffffffffffff16815260200190815260200160002054846132f790919063ffffffff16565b92506139ff600460006008848154811061398a57fe5b9060005260206000200160009054906101000a900473ffffffffffffffffffffffffffffffffffffffff1673ffffffffffffffffffffffffffffffffffffffff1673ffffffffffffffffffffffffffffffffffffffff16815260200190815260200160002054836132f790919063ffffffff16565b915080806001019150506137ce565b50613a26600954600a546131c990919063ffffffff16565b821015613a3e57600a54600954935093505050613a47565b81819350935050505b9091565b60008083118290613af7576040517f08c379a00000000000000000000000000000000000000000000000000000000081526004018080602001828103825283818151815260200191508051906020019080838360005b83811015613abc578082015181840152602081019050613aa1565b50505050905090810190601f168015613ae95780820380516001836020036101000a031916815260200191505b509250505060405180910390fd5b506000838581613b0357fe5b049050809150509392505050565b600080600080613b20856149ca565b90506000613b2d866149fb565b90506000613b5682613b48858a6132f790919063ffffffff16565b6132f790919063ffffffff16565b90508083839550955095505050509193909250565b600080600080613b84858961334190919063ffffffff16565b90506000613b9b868961334190919063ffffffff16565b90506000613bb2878961334190919063ffffffff16565b90506000613bdb82613bcd85876132f790919063ffffffff16565b6132f790919063ffffffff16565b9050838184965096509650505050509450945094915050565b6060600267ffffffffffffffff81118015613c0e57600080fd5b50604051908082528060200260200182016040528015613c3d5781602001602082028036833780820191505090505b5090503081600081518110613c4e57fe5b602002602001019073ffffffffffffffffffffffffffffffffffffffff16908173ffffffffffffffffffffffffffffffffffffffff16815250507f000000000000000000000000000000000000000000000000000000000000000073ffffffffffffffffffffffffffffffffffffffff1663ad5c46486040518163ffffffff1660e01b815260040160206040518083038186803b158015613cee57600080fd5b505afa158015613d02573d6000803e3d6000fd5b505050506040513d6020811015613d1857600080fd5b810190808051906020019092919050505081600181518110613d3657fe5b602002602001019073ffffffffffffffffffffffffffffffffffffffff16908173ffffffffffffffffffffffffffffffffffffffff1681525050613d9b307f000000000000000000000000000000000000000000000000000000000000000084612b22565b7f000000000000000000000000000000000000000000000000000000000000000073ffffffffffffffffffffffffffffffffffffffff1663791ac9478360008430426040518663ffffffff1660e01b815260040180868152602001858152602001806020018473ffffffffffffffffffffffffffffffffffffffff168152602001838152602001828103825285818151815260200191508051906020019060200280838360005b83811015613e5d578082015181840152602081019050613e42565b505050509050019650505050505050600060405180830381600087803b158015613e8657600080fd5b505af1158015613e9a573d6000803e3d6000fd5b505050505050565b613ecd307f000000000000000000000000000000000000000000000000000000000000000084612b22565b7f000000000000000000000000000000000000000000000000000000000000000073ffffffffffffffffffffffffffffffffffffffff1663f305d719823085600080613f17611eae565b426040518863ffffffff1660e01b8152600401808773ffffffffffffffffffffffffffffffffffffffff1681526020018681526020018581526020018481526020018373ffffffffffffffffffffffffffffffffffffffff16815260200182815260200196505050505050506060604051808303818588803b158015613f9c57600080fd5b505af1158015613fb0573d6000803e3d6000fd5b50505050506040513d6060811015613fc757600080fd5b810190808051906020019092919080519060200190929190805190602001909291905050505050505050565b6000600f5414801561400757506000601154145b1561401157614034565b600f546010819055506011546012819055506000600f8190555060006011819055505b565b6000806000806000806140488761329b565b9550955095509550955095506140a687600460008c73ffffffffffffffffffffffffffffffffffffffff1673ffffffffffffffffffffffffffffffffffffffff168152602001908152602001600020546132f790919063ffffffff16565b600460008b73ffffffffffffffffffffffffffffffffffffffff1673ffffffffffffffffffffffffffffffffffffffff1681526020019081526020016000208190555061413b86600360008c73ffffffffffffffffffffffffffffffffffffffff1673ffffffffffffffffffffffffffffffffffffffff168152602001908152602001600020546132f790919063ffffffff16565b600360008b73ffffffffffffffffffffffffffffffffffffffff1673ffffffffffffffffffffffffffffffffffffffff168152602001908152602001600020819055506141d085600360008b73ffffffffffffffffffffffffffffffffffffffff1673ffffffffffffffffffffffffffffffffffffffff1681526020019081526020016000205461321390919063ffffffff16565b600360008a73ffffffffffffffffffffffffffffffffffffffff1673ffffffffffffffffffffffffffffffffffffffff1681526020019081526020016000208190555061421c81614a2c565b6142268483614bd1565b8773ffffffffffffffffffffffffffffffffffffffff168973ffffffffffffffffffffffffffffffffffffffff167fddf252ad1be2c89b69c2b068fc378daa952ba7f163c4a11628f55a4df523b3ef856040518082815260200191505060405180910390a3505050505050505050565b6000806000806000806142a88761329b565b95509550955095509550955061430686600360008c73ffffffffffffffffffffffffffffffffffffffff1673ffffffffffffffffffffffffffffffffffffffff168152602001908152602001600020546132f790919063ffffffff16565b600360008b73ffffffffffffffffffffffffffffffffffffffff1673ffffffffffffffffffffffffffffffffffffffff1681526020019081526020016000208190555061439b83600460008b73ffffffffffffffffffffffffffffffffffffffff1673ffffffffffffffffffffffffffffffffffffffff1681526020019081526020016000205461321390919063ffffffff16565b600460008a73ffffffffffffffffffffffffffffffffffffffff1673ffffffffffffffffffffffffffffffffffffffff1681526020019081526020016000208190555061443085600360008b73ffffffffffffffffffffffffffffffffffffffff1673ffffffffffffffffffffffffffffffffffffffff1681526020019081526020016000205461321390919063ffffffff16565b600360008a73ffffffffffffffffffffffffffffffffffffffff1673ffffffffffffffffffffffffffffffffffffffff1681526020019081526020016000208190555061447c81614a2c565b6144868483614bd1565b8773ffffffffffffffffffffffffffffffffffffffff168973ffffffffffffffffffffffffffffffffffffffff167fddf252ad1be2c89b69c2b068fc378daa952ba7f163c4a11628f55a4df523b3ef856040518082815260200191505060405180910390a3505050505050505050565b6000806000806000806145088761329b565b95509550955095509550955061456686600360008c73ffffffffffffffffffffffffffffffffffffffff1673ffffffffffffffffffffffffffffffffffffffff168152602001908152602001600020546132f790919063ffffffff16565b600360008b73ffffffffffffffffffffffffffffffffffffffff1673ffffffffffffffffffffffffffffffffffffffff168152602001908152602001600020819055506145fb85600360008b73ffffffffffffffffffffffffffffffffffffffff1673ffffffffffffffffffffffffffffffffffffffff1681526020019081526020016000205461321390919063ffffffff16565b600360008a73ffffffffffffffffffffffffffffffffffffffff1673ffffffffffffffffffffffffffffffffffffffff1681526020019081526020016000208190555061464781614a2c565b6146518483614bd1565b8773ffffffffffffffffffffffffffffffffffffffff168973ffffffffffffffffffffffffffffffffffffffff167fddf252ad1be2c89b69c2b068fc378daa952ba7f163c4a11628f55a4df523b3ef856040518082815260200191505060405180910390a3505050505050505050565b6000806000806000806146d38761329b565b95509550955095509550955061473187600460008c73ffffffffffffffffffffffffffffffffffffffff1673ffffffffffffffffffffffffffffffffffffffff168152602001908152602001600020546132f790919063ffffffff16565b600460008b73ffffffffffffffffffffffffffffffffffffffff1673ffffffffffffffffffffffffffffffffffffffff168152602001908152602001600020819055506147c686600360008c73ffffffffffffffffffffffffffffffffffffffff1673ffffffffffffffffffffffffffffffffffffffff168152602001908152602001600020546132f790919063ffffffff16565b600360008b73ffffffffffffffffffffffffffffffffffffffff1673ffffffffffffffffffffffffffffffffffffffff1681526020019081526020016000208190555061485b83600460008b73ffffffffffffffffffffffffffffffffffffffff1673ffffffffffffffffffffffffffffffffffffffff1681526020019081526020016000205461321390919063ffffffff16565b600460008a73ffffffffffffffffffffffffffffffffffffffff1673ffffffffffffffffffffffffffffffffffffffff168152602001908152602001600020819055506148f085600360008b73ffffffffffffffffffffffffffffffffffffffff1673ffffffffffffffffffffffffffffffffffffffff1681526020019081526020016000205461321390919063ffffffff16565b600360008a73ffffffffffffffffffffffffffffffffffffffff1673ffffffffffffffffffffffffffffffffffffffff1681526020019081526020016000208190555061493c81614a2c565b6149468483614bd1565b8773ffffffffffffffffffffffffffffffffffffffff168973ffffffffffffffffffffffffffffffffffffffff167fddf252ad1be2c89b69c2b068fc378daa952ba7f163c4a11628f55a4df523b3ef856040518082815260200191505060405180910390a3505050505050505050565b601054600f81905550601254601181905550565b60006149f460646149e6600f548561334190919063ffffffff16565b6131c990919063ffffffff16565b9050919050565b6000614a256064614a176011548561334190919063ffffffff16565b6131c990919063ffffffff16565b9050919050565b6000614a3661319e565b90506000614a4d828461334190919063ffffffff16565b9050614aa181600360003073ffffffffffffffffffffffffffffffffffffffff1673ffffffffffffffffffffffffffffffffffffffff1681526020019081526020016000205461321390919063ffffffff16565b600360003073ffffffffffffffffffffffffffffffffffffffff1673ffffffffffffffffffffffffffffffffffffffff16815260200190815260200160002081905550600760003073ffffffffffffffffffffffffffffffffffffffff1673ffffffffffffffffffffffffffffffffffffffff16815260200190815260200160002060009054906101000a900460ff1615614bcc57614b8883600460003073ffffffffffffffffffffffffffffffffffffffff1673ffffffffffffffffffffffffffffffffffffffff1681526020019081526020016000205461321390919063ffffffff16565b600460003073ffffffffffffffffffffffffffffffffffffffff1673ffffffffffffffffffffffffffffffffffffffff168152602001908152602001600020819055505b505050565b614be682600a546132f790919063ffffffff16565b600a81905550614c0181600b5461321390919063ffffffff16565b600b81905550505056fe45524332303a207472616e7366657220746f20746865207a65726f2061646472657373416d6f756e74206d757374206265206c657373207468616e20746f74616c207265666c656374696f6e734f776e61626c653a206e6577206f776e657220697320746865207a65726f206164647265737345524332303a20617070726f766520746f20746865207a65726f20616464726573735472616e7366657220616d6f756e74206578636565647320746865206d61785478416d6f756e742e536166654d6174683a206d756c7469706c69636174696f6e206f766572666c6f7745524332303a207472616e7366657220616d6f756e74206578636565647320616c6c6f77616e63655472616e7366657220616d6f756e74206d7573742062652067726561746572207468616e207a65726f45524332303a207472616e736665722066726f6d20746865207a65726f206164647265737345524332303a20617070726f76652066726f6d20746865207a65726f20616464726573734578636c75646564206164647265737365732063616e6e6f742063616c6c20746869732066756e6374696f6e596f7520646f6e27742068617665207065726d697373696f6e20746f20756e6c6f636b45524332303a2064656372656173656420616c6c6f77616e63652062656c6f77207a65726fa264697066735822122055fb29162a59219e3a222af45f28d9bb57f04d43deab702951e91ae8db15155564736f6c634300060c0033

Deployed ByteCode Sourcemap

25753:18390:0:-:0;;;;;;;;;;;;;;;;;;;;;;;;;;;;;;;;;;;;;;;;;;;;;;;;;;;;;;;;;;;;;;;;;;;;;;;;;;;;;;;;;;;;;;;;;;;;;;;;;;;;;;;;;;;;;;;;;;;;;;;;;;;;;;;;;;;;;;;;;;;;;;;;;;;;;;;;;;;;;;;;;;;;;;;;;;;;;;;;;;;;;;;;;;;;;;;;;;;;;;;;;;;;;;;;;;;;;;;;;;;;;;;;;;;;;;;;;;;;;;;;;;;;;;;;;;;;;;;;;;;;;;;;33238:98;;;;;;;;;;;;;;;;;;;;;;;;;;;;;;;;;;;;;;;;;;;:::i;:::-;;28173:83;;;;;;;;;;;;;:::i;:::-;;;;;;;;;;;;;;;;;;;;;;;;;;;;;;;;;;;;;;;;;;;;;;;;;;;;;;;;;;;;;;;;;;;;;;;;;;;;;;;;;;;;;;;;;;;;;;;;;;;;;;;;29085:161;;;;;;;;;;;;;;;;;;;;;;;;;;;;;;;;;;;;;;;;;;;;;;;;;;;;;;:::i;:::-;;;;;;;;;;;;;;;;;;;;;30206:87;;;;;;;;;;;;;:::i;:::-;;;;;;;;;;;;;;;;;;;26714:51;;;;;;;;;;;;;:::i;:::-;;;;;;;;;;;;;;;;;;;;;28450:95;;;;;;;;;;;;;:::i;:::-;;;;;;;;;;;;;;;;;;;29254:313;;;;;;;;;;;;;;;;;;;;;;;;;;;;;;;;;;;;;;;;;;;;;;;;;;;;;;;;;;;;;;;;;:::i;:::-;;;;;;;;;;;;;;;;;;;;;31130:253;;;;;;;;;;;;;;;;;;;;;;;;;;;;;;;;;;;;;;;;;;;:::i;:::-;;;;;;;;;;;;;;;;;;;28359:83;;;;;;;;;;;;;:::i;:::-;;;;;;;;;;;;;;;;;;;;;31846:479;;;;;;;;;;;;;;;;;;;;;;;;;;;;;;;;;;;;;;;;;;;;;:::i;:::-;;29575:218;;;;;;;;;;;;;;;;;;;;;;;;;;;;;;;;;;;;;;;;;;;;;;;;;;;;;;:::i;:::-;;;;;;;;;;;;;;;;;;;;;26526:26;;;;;;;;;;;;;:::i;:::-;;;;;;;;;;;;;;;;;;;30301:377;;;;;;;;;;;;;;;;;;;;;;;;;;;;;;;;;;;;;;;;;;;:::i;:::-;;32993:111;;;;;;;;;;;;;;;;;;;;;;;;;;;;;;;;;;;;;;;;;;;;;:::i;:::-;;30686:436;;;;;;;;;;;;;;;;;;;;;;;;;;;;;;;;;;;;;;;;;;;;;;;;;;;;;;:::i;:::-;;;;;;;;;;;;;;;;;;;26772:38;;;;;;;;;;;;;:::i;:::-;;;;;;;;;;;;;;;;;;;;;26851:40;;;;;;;;;;;;;:::i;:::-;;;;;;;;;;;;;;;;;;;;;31391:447;;;;;;;;;;;;;;;;;;;;;;;;;;;;;;;;;;;;;;;;;;;;;:::i;:::-;;37135:123;;;;;;;;;;;;;;;;;;;;;;;;;;;;;;;;;;;;;;;;;;;;;:::i;:::-;;;;;;;;;;;;;;;;;;;;;26613:32;;;;;;;;;;;;;:::i;:::-;;;;;;;;;;;;;;;;;;;28553:198;;;;;;;;;;;;;;;;;;;;;;;;;;;;;;;;;;;;;;;;;;;;;:::i;:::-;;;;;;;;;;;;;;;;;;;16348:148;;;;;;;;;;;;;:::i;:::-;;26904:53;;;;;;;;;;;;;:::i;:::-;;;;;;;;;;;;;;;;;;;30078:120;;;;;;;;;;;;;;;;;;;;;;;;;;;;;;;;;;;;;;;;;;;;;:::i;:::-;;;;;;;;;;;;;;;;;;;;;15705:79;;;;;;;;;;;;;:::i;:::-;;;;;;;;;;;;;;;;;;;;;33348:122;;;;;;;;;;;;;;;;;;;;;;;;;;;;;;;;;;;;;;;;;;;:::i;:::-;;28264:87;;;;;;;;;;;;;:::i;:::-;;;;;;;;;;;;;;;;;;;;;;;;;;;;;;;;;;;;;;;;;;;;;;;;;;;;;;;;;;;;;;;;;;;;;;;;;;;;;;;;;;;;;;;;;;;;;;;;;;;;;;;;29801:269;;;;;;;;;;;;;;;;;;;;;;;;;;;;;;;;;;;;;;;;;;;;;;;;;;;;;;:::i;:::-;;;;;;;;;;;;;;;;;;;;;17358:293;;;;;;;;;;;;;:::i;:::-;;28759:167;;;;;;;;;;;;;;;;;;;;;;;;;;;;;;;;;;;;;;;;;;;;;;;;;;;;;;:::i;:::-;;;;;;;;;;;;;;;;;;;;;16903:89;;;;;;;;;;;;;:::i;:::-;;;;;;;;;;;;;;;;;;;33651:171;;;;;;;;;;;;;;;;;;;;;;;;;;;;;;;;;;;;;;;;;;;;;:::i;:::-;;33481:162;;;;;;;;;;;;;;;;;;;;;;;;;;;;;;;;;;;;;;;;;;;:::i;:::-;;17068:214;;;;;;;;;;;;;;;;;;;;;;;;;;;;;;;;;;;;;;;;;;;:::i;:::-;;28934:143;;;;;;;;;;;;;;;;;;;;;;;;;;;;;;;;;;;;;;;;;;;;;;;;;;;;;;;;:::i;:::-;;;;;;;;;;;;;;;;;;;33116:110;;;;;;;;;;;;;;;;;;;;;;;;;;;;;;;;;;;;;;;;;;;;;:::i;:::-;;16651:244;;;;;;;;;;;;;;;;;;;;;;;;;;;;;;;;;;;;;;;;;;;;;:::i;:::-;;33238:98;15927:12;:10;:12::i;:::-;15917:22;;:6;;;;;;;;;;:22;;;15909:67;;;;;;;;;;;;;;;;;;;;;;;;;;;;;;;;;;;;;;;;;33322:6:::1;33312:7;:16;;;;33238:98:::0;:::o;28173:83::-;28210:13;28243:5;28236:12;;;;;;;;;;;;;;;;;;;;;;;;;;;;;;;;;;;;;;;;;;;;;;;;;;;;;;;;;;;;;;;;;;;;;;;;;;;;;;;;;;;;;;;;;;;;;;;;;;;;;;;;;;;;;;;;;;;;;;;;;28173:83;:::o;29085:161::-;29160:4;29177:39;29186:12;:10;:12::i;:::-;29200:7;29209:6;29177:8;:39::i;:::-;29234:4;29227:11;;29085:161;;;;:::o;30206:87::-;30248:7;30275:10;;30268:17;;30206:87;:::o;26714:51::-;;;:::o;28450:95::-;28503:7;28530;;28523:14;;28450:95;:::o;29254:313::-;29352:4;29369:36;29379:6;29387:9;29398:6;29369:9;:36::i;:::-;29416:121;29425:6;29433:12;:10;:12::i;:::-;29447:89;29485:6;29447:89;;;;;;;;;;;;;;;;;:11;:19;29459:6;29447:19;;;;;;;;;;;;;;;:33;29467:12;:10;:12::i;:::-;29447:33;;;;;;;;;;;;;;;;:37;;:89;;;;;:::i;:::-;29416:8;:121::i;:::-;29555:4;29548:11;;29254:313;;;;;:::o;31130:253::-;31196:7;31235;;31224;:18;;31216:73;;;;;;;;;;;;;;;;;;;;;;;;;;;;;;;;;;;;;;;;;31300:19;31323:10;:8;:10::i;:::-;31300:33;;31351:24;31363:11;31351:7;:11;;:24;;;;:::i;:::-;31344:31;;;31130:253;;;:::o;28359:83::-;28400:5;28425:9;;;;;;;;;;;28418:16;;28359:83;:::o;31846:479::-;15927:12;:10;:12::i;:::-;15917:22;;:6;;;;;;;;;;:22;;;15909:67;;;;;;;;;;;;;;;;;;;;;;;;;;;;;;;;;;;;;;;;;31928:11:::1;:20;31940:7;31928:20;;;;;;;;;;;;;;;;;;;;;;;;;31920:60;;;;;;;;;;;;;;;;;;;;;;;;;;;::::0;::::1;;;;;;;;;;;;;31996:9;31991:327;32015:9;:16;;;;32011:1;:20;31991:327;;;32073:7;32057:23;;:9;32067:1;32057:12;;;;;;;;;;;;;;;;;;;;;;;;;:23;;;32053:254;;;32116:9;32145:1;32126:9;:16;;;;:20;32116:31;;;;;;;;;;;;;;;;;;;;;;;;;32101:9;32111:1;32101:12;;;;;;;;;;;;;;;;:46;;;;;;;;;;;;;;;;;;32185:1;32166:7;:16;32174:7;32166:16;;;;;;;;;;;;;;;:20;;;;32228:5;32205:11;:20;32217:7;32205:20;;;;;;;;;;;;;;;;:28;;;;;;;;;;;;;;;;;;32252:9;:15;;;;;;;;;;;;;;;;;;;;;;;;;;;;;;;;;32286:5;;32053:254;32033:3;;;;;;;31991:327;;;;31846:479:::0;:::o;29575:218::-;29663:4;29680:83;29689:12;:10;:12::i;:::-;29703:7;29712:50;29751:10;29712:11;:25;29724:12;:10;:12::i;:::-;29712:25;;;;;;;;;;;;;;;:34;29738:7;29712:34;;;;;;;;;;;;;;;;:38;;:50;;;;:::i;:::-;29680:8;:83::i;:::-;29781:4;29774:11;;29575:218;;;;:::o;26526:26::-;;;;:::o;30301:377::-;30353:14;30370:12;:10;:12::i;:::-;30353:29;;30402:11;:19;30414:6;30402:19;;;;;;;;;;;;;;;;;;;;;;;;;30401:20;30393:77;;;;;;;;;;;;;;;;;;;;;;;;;;;;;;;;;;;;;;;;;30482:15;30506:19;30517:7;30506:10;:19::i;:::-;30481:44;;;;;;;30554:28;30574:7;30554;:15;30562:6;30554:15;;;;;;;;;;;;;;;;:19;;:28;;;;:::i;:::-;30536:7;:15;30544:6;30536:15;;;;;;;;;;;;;;;:46;;;;30603:20;30615:7;30603;;:11;;:20;;;;:::i;:::-;30593:7;:30;;;;30647:23;30662:7;30647:10;;:14;;:23;;;;:::i;:::-;30634:10;:36;;;;30301:377;;;:::o;32993:111::-;15927:12;:10;:12::i;:::-;15917:22;;:6;;;;;;;;;;:22;;;15909:67;;;;;;;;;;;;;;;;;;;;;;;;;;;;;;;;;;;;;;;;;33092:4:::1;33062:18;:27;33081:7;33062:27;;;;;;;;;;;;;;;;:34;;;;;;;;;;;;;;;;;;32993:111:::0;:::o;30686:436::-;30776:7;30815;;30804;:18;;30796:62;;;;;;;;;;;;;;;;;;;;;;;;;;;;;;;;;;;;;;;;;30874:17;30869:246;;30909:15;30933:19;30944:7;30933:10;:19::i;:::-;30908:44;;;;;;;30974:7;30967:14;;;;;30869:246;31016:23;31047:19;31058:7;31047:10;:19::i;:::-;31014:52;;;;;;;31088:15;31081:22;;;30686:436;;;;;:::o;26772:38::-;;;:::o;26851:40::-;;;;;;;;;;;;;:::o;31391:447::-;15927:12;:10;:12::i;:::-;15917:22;;:6;;;;;;;;;;:22;;;15909:67;;;;;;;;;;;;;;;;;;;;;;;;;;;;;;;;;;;;;;;;;31588:11:::1;:20;31600:7;31588:20;;;;;;;;;;;;;;;;;;;;;;;;;31587:21;31579:61;;;;;;;;;;;;;;;;;;;;;;;;;;;::::0;::::1;;;;;;;;;;;;;31673:1;31654:7;:16;31662:7;31654:16;;;;;;;;;;;;;;;;:20;31651:108;;;31710:37;31730:7;:16;31738:7;31730:16;;;;;;;;;;;;;;;;31710:19;:37::i;:::-;31691:7;:16;31699:7;31691:16;;;;;;;;;;;;;;;:56;;;;31651:108;31792:4;31769:11;:20;31781:7;31769:20;;;;;;;;;;;;;;;;:27;;;;;;;;;;;;;;;;;;31807:9;31822:7;31807:23;;;;;;;;;;;;;;;;;;;;;;;;;;;;;;;;;;;;;;;;;;;;;;;;31391:447:::0;:::o;37135:123::-;37199:4;37223:18;:27;37242:7;37223:27;;;;;;;;;;;;;;;;;;;;;;;;;37216:34;;37135:123;;;:::o;26613:32::-;;;;:::o;28553:198::-;28619:7;28643:11;:20;28655:7;28643:20;;;;;;;;;;;;;;;;;;;;;;;;;28639:49;;;28672:7;:16;28680:7;28672:16;;;;;;;;;;;;;;;;28665:23;;;;28639:49;28706:37;28726:7;:16;28734:7;28726:16;;;;;;;;;;;;;;;;28706:19;:37::i;:::-;28699:44;;28553:198;;;;:::o;16348:148::-;15927:12;:10;:12::i;:::-;15917:22;;:6;;;;;;;;;;:22;;;15909:67;;;;;;;;;;;;;;;;;;;;;;;;;;;;;;;;;;;;;;;;;16455:1:::1;16418:40;;16439:6;::::0;::::1;;;;;;;;16418:40;;;;;;;;;;;;16486:1;16469:6:::0;::::1;:19;;;;;;;;;;;;;;;;;;16348:148::o:0;26904:53::-;;;;:::o;30078:120::-;30146:4;30170:11;:20;30182:7;30170:20;;;;;;;;;;;;;;;;;;;;;;;;;30163:27;;30078:120;;;:::o;15705:79::-;15743:7;15770:6;;;;;;;;;;;15763:13;;15705:79;:::o;33348:122::-;15927:12;:10;:12::i;:::-;15917:22;;:6;;;;;;;;;;:22;;;15909:67;;;;;;;;;;;;;;;;;;;;;;;;;;;;;;;;;;;;;;;;;33450:12:::1;33434:13;:28;;;;33348:122:::0;:::o;28264:87::-;28303:13;28336:7;28329:14;;;;;;;;;;;;;;;;;;;;;;;;;;;;;;;;;;;;;;;;;;;;;;;;;;;;;;;;;;;;;;;;;;;;;;;;;;;;;;;;;;;;;;;;;;;;;;;;;;;;;;;;;;;;;;;;;;;;;;;;;28264:87;:::o;29801:269::-;29894:4;29911:129;29920:12;:10;:12::i;:::-;29934:7;29943:96;29982:15;29943:96;;;;;;;;;;;;;;;;;:11;:25;29955:12;:10;:12::i;:::-;29943:25;;;;;;;;;;;;;;;:34;29969:7;29943:34;;;;;;;;;;;;;;;;:38;;:96;;;;;:::i;:::-;29911:8;:129::i;:::-;30058:4;30051:11;;29801:269;;;;:::o;17358:293::-;17428:10;17410:28;;:14;;;;;;;;;;;:28;;;17402:76;;;;;;;;;;;;;;;;;;;;;;;;;;;;;;;;;;;;;;;;;17503:9;;17497:3;:15;17489:60;;;;;;;;;;;;;;;;;;;;;;;;;;;;;;;;;;;;;;;;;17594:14;;;;;;;;;;;17565:44;;17586:6;;;;;;;;;;17565:44;;;;;;;;;;;;17629:14;;;;;;;;;;;17620:6;;:23;;;;;;;;;;;;;;;;;;17358:293::o;28759:167::-;28837:4;28854:42;28864:12;:10;:12::i;:::-;28878:9;28889:6;28854:9;:42::i;:::-;28914:4;28907:11;;28759:167;;;;:::o;16903:89::-;16948:7;16975:9;;16968:16;;16903:89;:::o;33651:171::-;15927:12;:10;:12::i;:::-;15917:22;;:6;;;;;;;;;;:22;;;15909:67;;;;;;;;;;;;;;;;;;;;;;;;;;;;;;;;;;;;;;;;;33752:8:::1;33728:21;;:32;;;;;;;;;;;;;;;;;;33776:38;33805:8;33776:38;;;;;;;;;;;;;;;;;;;;33651:171:::0;:::o;33481:162::-;15927:12;:10;:12::i;:::-;15917:22;;:6;;;;;;;;;;:22;;;15909:67;;;;;;;;;;;;;;;;;;;;;;;;;;;;;;;;;;;;;;;;;33575:60:::1;33619:5;33575:25;33587:12;33575:7;;:11;;:25;;;;:::i;:::-;:29;;:60;;;;:::i;:::-;33560:12;:75;;;;33481:162:::0;:::o;17068:214::-;15927:12;:10;:12::i;:::-;15917:22;;:6;;;;;;;;;;:22;;;15909:67;;;;;;;;;;;;;;;;;;;;;;;;;;;;;;;;;;;;;;;;;17149:6:::1;::::0;::::1;;;;;;;;17132:14;;:23;;;;;;;;;;;;;;;;;;17183:1;17166:6:::0;::::1;:19;;;;;;;;;;;;;;;;;;17214:4;17208:3;:10;17196:9;:22;;;;17271:1;17234:40;;17255:6;::::0;::::1;;;;;;;;17234:40;;;;;;;;;;;;17068:214:::0;:::o;28934:143::-;29015:7;29042:11;:18;29054:5;29042:18;;;;;;;;;;;;;;;:27;29061:7;29042:27;;;;;;;;;;;;;;;;29035:34;;28934:143;;;;:::o;33116:110::-;15927:12;:10;:12::i;:::-;15917:22;;:6;;;;;;;;;;:22;;;15909:67;;;;;;;;;;;;;;;;;;;;;;;;;;;;;;;;;;;;;;;;;33213:5:::1;33183:18;:27;33202:7;33183:27;;;;;;;;;;;;;;;;:35;;;;;;;;;;;;;;;;;;33116:110:::0;:::o;16651:244::-;15927:12;:10;:12::i;:::-;15917:22;;:6;;;;;;;;;;:22;;;15909:67;;;;;;;;;;;;;;;;;;;;;;;;;;;;;;;;;;;;;;;;;16760:1:::1;16740:22;;:8;:22;;;;16732:73;;;;;;;;;;;;;;;;;;;;;;;;;;;;;;;;;;;;;;;;;16850:8;16821:38;;16842:6;::::0;::::1;;;;;;;;16821:38;;;;;;;;;;;;16879:8;16870:6;::::0;:17:::1;;;;;;;;;;;;;;;;;;16651:244:::0;:::o;8113:106::-;8166:15;8201:10;8194:17;;8113:106;:::o;37266:337::-;37376:1;37359:19;;:5;:19;;;;37351:68;;;;;;;;;;;;;;;;;;;;;;;;;;;;;;;;;;;;;;;;;37457:1;37438:21;;:7;:21;;;;37430:68;;;;;;;;;;;;;;;;;;;;;;;;;;;;;;;;;;;;;;;;;37541:6;37511:11;:18;37523:5;37511:18;;;;;;;;;;;;;;;:27;37530:7;37511:27;;;;;;;;;;;;;;;:36;;;;37579:7;37563:32;;37572:5;37563:32;;;37588:6;37563:32;;;;;;;;;;;;;;;;;;37266:337;;;:::o;37611:1813::-;37749:1;37733:18;;:4;:18;;;;37725:68;;;;;;;;;;;;;;;;;;;;;;;;;;;;;;;;;;;;;;;;;37826:1;37812:16;;:2;:16;;;;37804:64;;;;;;;;;;;;;;;;;;;;;;;;;;;;;;;;;;;;;;;;;37896:1;37887:6;:10;37879:64;;;;;;;;;;;;;;;;;;;;;;;;;;;;;;;;;;;;;;;;;37965:7;:5;:7::i;:::-;37957:15;;:4;:15;;;;:32;;;;;37982:7;:5;:7::i;:::-;37976:13;;:2;:13;;;;37957:32;37954:125;;;38022:12;;38012:6;:22;;38004:75;;;;;;;;;;;;;;;;;;;;;;;;;;;;;;;;;;;;;;;;;37954:125;38374:28;38405:24;38423:4;38405:9;:24::i;:::-;38374:55;;38477:12;;38453:20;:36;38450:112;;38538:12;;38515:35;;38450:112;38582:24;38633:29;;38609:20;:53;;38582:80;;38691:19;:53;;;;;38728:16;;;;;;;;;;;38727:17;38691:53;:91;;;;;38769:13;38761:21;;:4;:21;;;;38691:91;:129;;;;;38799:21;;;;;;;;;;;38691:129;38673:318;;;38870:29;;38847:52;;38943:36;38958:20;38943:14;:36::i;:::-;38673:318;39072:12;39087:4;39072:19;;39199:18;:24;39218:4;39199:24;;;;;;;;;;;;;;;;;;;;;;;;;:50;;;;39227:18;:22;39246:2;39227:22;;;;;;;;;;;;;;;;;;;;;;;;;39199:50;39196:96;;;39275:5;39265:15;;39196:96;39378:38;39393:4;39398:2;39401:6;39408:7;39378:14;:38::i;:::-;37611:1813;;;;;;:::o;4523:192::-;4609:7;4642:1;4637;:6;;4645:12;4629:29;;;;;;;;;;;;;;;;;;;;;;;;;;;;;;;;;;;;;;;;;;;;;;;;;;;;;;;;;;;;;;;;;;;;;;;;;;;;;;;;;;;;;;;;;;;;;;;;;;;;;;;;;;;;;;;;;4669:9;4685:1;4681;:5;4669:17;;4706:1;4699:8;;;4523:192;;;;;:::o;35285:163::-;35326:7;35347:15;35364;35383:19;:17;:19::i;:::-;35346:56;;;;35420:20;35432:7;35420;:11;;:20;;;;:::i;:::-;35413:27;;;;35285:163;:::o;5921:132::-;5979:7;6006:39;6010:1;6013;6006:39;;;;;;;;;;;;;;;;;:3;:39::i;:::-;5999:46;;5921:132;;;;:::o;3620:181::-;3678:7;3698:9;3714:1;3710;:5;3698:17;;3739:1;3734;:6;;3726:46;;;;;;;;;;;;;;;;;;;;;;;;;;;;;;;;;;;;;;;;;3792:1;3785:8;;;3620:181;;;;:::o;34083:419::-;34142:7;34151;34160;34169;34178;34187;34208:23;34233:12;34247:18;34269:20;34281:7;34269:11;:20::i;:::-;34207:82;;;;;;34301:15;34318:23;34343:12;34359:50;34371:7;34380:4;34386:10;34398;:8;:10::i;:::-;34359:11;:50::i;:::-;34300:109;;;;;;34428:7;34437:15;34454:4;34460:15;34477:4;34483:10;34420:74;;;;;;;;;;;;;;;;;;34083:419;;;;;;;:::o;4084:136::-;4142:7;4169:43;4173:1;4176;4169:43;;;;;;;;;;;;;;;;;:3;:43::i;:::-;4162:50;;4084:136;;;;:::o;4974:471::-;5032:7;5282:1;5277;:6;5273:47;;;5307:1;5300:8;;;;5273:47;5332:9;5348:1;5344;:5;5332:17;;5377:1;5372;5368;:5;;;;;;:10;5360:56;;;;;;;;;;;;;;;;;;;;;;;;;;;;;;;;;;;;;;;;;5436:1;5429:8;;;4974:471;;;;;:::o;39432:985::-;27360:4;27341:16;;:23;;;;;;;;;;;;;;;;;;39568:12:::1;39583:27;39608:1;39583:20;:24;;:27;;;;:::i;:::-;39568:42;;39621:17;39641:30;39666:4;39641:20;:24;;:30;;;;:::i;:::-;39621:50;;39949:22;39974:21;39949:46;;40040:22;40057:4;40040:16;:22::i;:::-;40193:18;40214:41;40240:14;40214:21;:25;;:41;;;;:::i;:::-;40193:62;;40305:35;40318:9;40329:10;40305:12;:35::i;:::-;40366:43;40381:4;40387:10;40399:9;40366:43;;;;;;;;;;;;;;;;;;;;;;;;;;;;;;27375:1;;;;27406:5:::0;27387:16;;:24;;;;;;;;;;;;;;;;;;39432:985;:::o;41616:834::-;41727:7;41723:40;;41749:14;:12;:14::i;:::-;41723:40;41788:11;:19;41800:6;41788:19;;;;;;;;;;;;;;;;;;;;;;;;;:46;;;;;41812:11;:22;41824:9;41812:22;;;;;;;;;;;;;;;;;;;;;;;;;41811:23;41788:46;41784:597;;;41851:48;41873:6;41881:9;41892:6;41851:21;:48::i;:::-;41784:597;;;41922:11;:19;41934:6;41922:19;;;;;;;;;;;;;;;;;;;;;;;;;41921:20;:46;;;;;41945:11;:22;41957:9;41945:22;;;;;;;;;;;;;;;;;;;;;;;;;41921:46;41917:464;;;41984:46;42004:6;42012:9;42023:6;41984:19;:46::i;:::-;41917:464;;;42053:11;:19;42065:6;42053:19;;;;;;;;;;;;;;;;;;;;;;;;;42052:20;:47;;;;;42077:11;:22;42089:9;42077:22;;;;;;;;;;;;;;;;;;;;;;;;;42076:23;42052:47;42048:333;;;42116:44;42134:6;42142:9;42153:6;42116:17;:44::i;:::-;42048:333;;;42182:11;:19;42194:6;42182:19;;;;;;;;;;;;;;;;;;;;;;;;;:45;;;;;42205:11;:22;42217:9;42205:22;;;;;;;;;;;;;;;;;;;;;;;;;42182:45;42178:203;;;42244:48;42266:6;42274:9;42285:6;42244:21;:48::i;:::-;42178:203;;;42325:44;42343:6;42351:9;42362:6;42325:17;:44::i;:::-;42178:203;42048:333;41917:464;41784:597;42405:7;42401:41;;42427:15;:13;:15::i;:::-;42401:41;41616:834;;;;:::o;35456:561::-;35506:7;35515;35535:15;35553:7;;35535:25;;35571:15;35589:7;;35571:25;;35618:9;35613:289;35637:9;:16;;;;35633:1;:20;35613:289;;;35703:7;35679;:21;35687:9;35697:1;35687:12;;;;;;;;;;;;;;;;;;;;;;;;;35679:21;;;;;;;;;;;;;;;;:31;:66;;;;35738:7;35714;:21;35722:9;35732:1;35722:12;;;;;;;;;;;;;;;;;;;;;;;;;35714:21;;;;;;;;;;;;;;;;:31;35679:66;35675:97;;;35755:7;;35764;;35747:25;;;;;;;;;35675:97;35797:34;35809:7;:21;35817:9;35827:1;35817:12;;;;;;;;;;;;;;;;;;;;;;;;;35809:21;;;;;;;;;;;;;;;;35797:7;:11;;:34;;;;:::i;:::-;35787:44;;35856:34;35868:7;:21;35876:9;35886:1;35876:12;;;;;;;;;;;;;;;;;;;;;;;;;35868:21;;;;;;;;;;;;;;;;35856:7;:11;;:34;;;;:::i;:::-;35846:44;;35655:3;;;;;;;35613:289;;;;35926:20;35938:7;;35926;;:11;;:20;;;;:::i;:::-;35916:7;:30;35912:61;;;35956:7;;35965;;35948:25;;;;;;;;35912:61;35992:7;36001;35984:25;;;;;;35456:561;;;:::o;6549:278::-;6635:7;6667:1;6663;:5;6670:12;6655:28;;;;;;;;;;;;;;;;;;;;;;;;;;;;;;;;;;;;;;;;;;;;;;;;;;;;;;;;;;;;;;;;;;;;;;;;;;;;;;;;;;;;;;;;;;;;;;;;;;;;;;;;;;;;;;;;;6694:9;6710:1;6706;:5;;;;;;6694:17;;6818:1;6811:8;;;6549:278;;;;;:::o;34510:330::-;34570:7;34579;34588;34608:12;34623:24;34639:7;34623:15;:24::i;:::-;34608:39;;34658:18;34679:30;34701:7;34679:21;:30::i;:::-;34658:51;;34720:23;34746:33;34768:10;34746:17;34758:4;34746:7;:11;;:17;;;;:::i;:::-;:21;;:33;;;;:::i;:::-;34720:59;;34798:15;34815:4;34821:10;34790:42;;;;;;;;;34510:330;;;;;:::o;34848:429::-;34963:7;34972;34981;35001:15;35019:24;35031:11;35019:7;:11;;:24;;;;:::i;:::-;35001:42;;35054:12;35069:21;35078:11;35069:4;:8;;:21;;;;:::i;:::-;35054:36;;35101:18;35122:27;35137:11;35122:10;:14;;:27;;;;:::i;:::-;35101:48;;35160:23;35186:33;35208:10;35186:17;35198:4;35186:7;:11;;:17;;;;:::i;:::-;:21;;:33;;;;:::i;:::-;35160:59;;35238:7;35247:15;35264:4;35230:39;;;;;;;;;;34848:429;;;;;;;;:::o;40425:589::-;40551:21;40589:1;40575:16;;;;;;;;;;;;;;;;;;;;;;;;;;;;;;;;;;;;;;;;;;;;;;;;;;;40551:40;;40620:4;40602;40607:1;40602:7;;;;;;;;;;;;;:23;;;;;;;;;;;40646:15;:20;;;:22;;;;;;;;;;;;;;;;;;;;;;;;;;;;;;;;;;;;;;;;;;;;;;;;;;;;;;;;;;;;;;;;;;;;;;;;;;;;;;;40636:4;40641:1;40636:7;;;;;;;;;;;;;:32;;;;;;;;;;;40681:62;40698:4;40713:15;40731:11;40681:8;:62::i;:::-;40782:15;:66;;;40863:11;40889:1;40933:4;40960;40980:15;40782:224;;;;;;;;;;;;;;;;;;;;;;;;;;;;;;;;;;;;;;;;;;;;;;;;;;;;;;;;;;;;;;;;;;;;;;;;;;;;;;;;;;;;;;;;;;;;;;;;;;;;;;;;;;;;;;;;;;;;;;;;;;;;;;;;;;;;;;;;;;;;;;40425:589;;:::o;41022:513::-;41170:62;41187:4;41202:15;41220:11;41170:8;:62::i;:::-;41275:15;:31;;;41314:9;41347:4;41367:11;41393:1;41436;41479:7;:5;:7::i;:::-;41501:15;41275:252;;;;;;;;;;;;;;;;;;;;;;;;;;;;;;;;;;;;;;;;;;;;;;;;;;;;;;;;;;;;;;;;;;;;;;;;;;;;;;;;;;;;;;;;;;;;;;;;;;;;;;;;;;;;;;;;;;;;;;;;;;;;;;;;;;;;;;;;;;;;;;;;;41022:513;;:::o;36736:250::-;36793:1;36782:7;;:12;:34;;;;;36815:1;36798:13;;:18;36782:34;36779:46;;;36818:7;;36779:46;36863:7;;36845:15;:25;;;;36905:13;;36881:21;:37;;;;36949:1;36939:7;:11;;;;36977:1;36961:13;:17;;;;36736:250;:::o;43562:566::-;43665:15;43682:23;43707:12;43721:23;43746:12;43760:18;43782:19;43793:7;43782:10;:19::i;:::-;43664:137;;;;;;;;;;;;43830:28;43850:7;43830;:15;43838:6;43830:15;;;;;;;;;;;;;;;;:19;;:28;;;;:::i;:::-;43812:7;:15;43820:6;43812:15;;;;;;;;;;;;;;;:46;;;;43887:28;43907:7;43887;:15;43895:6;43887:15;;;;;;;;;;;;;;;;:19;;:28;;;;:::i;:::-;43869:7;:15;43877:6;43869:15;;;;;;;;;;;;;;;:46;;;;43947:39;43970:15;43947:7;:18;43955:9;43947:18;;;;;;;;;;;;;;;;:22;;:39;;;;:::i;:::-;43926:7;:18;43934:9;43926:18;;;;;;;;;;;;;;;:60;;;;44000:26;44015:10;44000:14;:26::i;:::-;44037:23;44049:4;44055;44037:11;:23::i;:::-;44093:9;44076:44;;44085:6;44076:44;;;44104:15;44076:44;;;;;;;;;;;;;;;;;;43562:566;;;;;;;;;:::o;42968:586::-;43069:15;43086:23;43111:12;43125:23;43150:12;43164:18;43186:19;43197:7;43186:10;:19::i;:::-;43068:137;;;;;;;;;;;;43234:28;43254:7;43234;:15;43242:6;43234:15;;;;;;;;;;;;;;;;:19;;:28;;;;:::i;:::-;43216:7;:15;43224:6;43216:15;;;;;;;;;;;;;;;:46;;;;43294:39;43317:15;43294:7;:18;43302:9;43294:18;;;;;;;;;;;;;;;;:22;;:39;;;;:::i;:::-;43273:7;:18;43281:9;43273:18;;;;;;;;;;;;;;;:60;;;;43365:39;43388:15;43365:7;:18;43373:9;43365:18;;;;;;;;;;;;;;;;:22;;:39;;;;:::i;:::-;43344:7;:18;43352:9;43344:18;;;;;;;;;;;;;;;:60;;;;43426:26;43441:10;43426:14;:26::i;:::-;43463:23;43475:4;43481;43463:11;:23::i;:::-;43519:9;43502:44;;43511:6;43502:44;;;43530:15;43502:44;;;;;;;;;;;;;;;;;;42968:586;;;;;;;;;:::o;42458:502::-;42557:15;42574:23;42599:12;42613:23;42638:12;42652:18;42674:19;42685:7;42674:10;:19::i;:::-;42556:137;;;;;;;;;;;;42722:28;42742:7;42722;:15;42730:6;42722:15;;;;;;;;;;;;;;;;:19;;:28;;;;:::i;:::-;42704:7;:15;42712:6;42704:15;;;;;;;;;;;;;;;:46;;;;42782:39;42805:15;42782:7;:18;42790:9;42782:18;;;;;;;;;;;;;;;;:22;;:39;;;;:::i;:::-;42761:7;:18;42769:9;42761:18;;;;;;;;;;;;;;;:60;;;;42832:26;42847:10;42832:14;:26::i;:::-;42869:23;42881:4;42887;42869:11;:23::i;:::-;42925:9;42908:44;;42917:6;42908:44;;;42936:15;42908:44;;;;;;;;;;;;;;;;;;42458:502;;;;;;;;;:::o;32335:642::-;32438:15;32455:23;32480:12;32494:23;32519:12;32533:18;32555:19;32566:7;32555:10;:19::i;:::-;32437:137;;;;;;;;;;;;32603:28;32623:7;32603;:15;32611:6;32603:15;;;;;;;;;;;;;;;;:19;;:28;;;;:::i;:::-;32585:7;:15;32593:6;32585:15;;;;;;;;;;;;;;;:46;;;;32660:28;32680:7;32660;:15;32668:6;32660:15;;;;;;;;;;;;;;;;:19;;:28;;;;:::i;:::-;32642:7;:15;32650:6;32642:15;;;;;;;;;;;;;;;:46;;;;32720:39;32743:15;32720:7;:18;32728:9;32720:18;;;;;;;;;;;;;;;;:22;;:39;;;;:::i;:::-;32699:7;:18;32707:9;32699:18;;;;;;;;;;;;;;;:60;;;;32791:39;32814:15;32791:7;:18;32799:9;32791:18;;;;;;;;;;;;;;;;:22;;:39;;;;:::i;:::-;32770:7;:18;32778:9;32770:18;;;;;;;;;;;;;;;:60;;;;32849:26;32864:10;32849:14;:26::i;:::-;32886:23;32898:4;32904;32886:11;:23::i;:::-;32942:9;32925:44;;32934:6;32925:44;;;32953:15;32925:44;;;;;;;;;;;;;;;;;;32335:642;;;;;;;;;:::o;36998:125::-;37052:15;;37042:7;:25;;;;37094:21;;37078:13;:37;;;;36998:125::o;36396:154::-;36460:7;36487:55;36526:5;36487:20;36499:7;;36487;:11;;:20;;;;:::i;:::-;:24;;:55;;;;:::i;:::-;36480:62;;36396:154;;;:::o;36558:166::-;36628:7;36655:61;36700:5;36655:26;36667:13;;36655:7;:11;;:26;;;;:::i;:::-;:30;;:61;;;;:::i;:::-;36648:68;;36558:166;;;:::o;36029:355::-;36092:19;36115:10;:8;:10::i;:::-;36092:33;;36136:18;36157:27;36172:11;36157:10;:14;;:27;;;;:::i;:::-;36136:48;;36220:38;36247:10;36220:7;:22;36236:4;36220:22;;;;;;;;;;;;;;;;:26;;:38;;;;:::i;:::-;36195:7;:22;36211:4;36195:22;;;;;;;;;;;;;;;:63;;;;36272:11;:26;36292:4;36272:26;;;;;;;;;;;;;;;;;;;;;;;;;36269:107;;;36338:38;36365:10;36338:7;:22;36354:4;36338:22;;;;;;;;;;;;;;;;:26;;:38;;;;:::i;:::-;36313:7;:22;36329:4;36313:22;;;;;;;;;;;;;;;:63;;;;36269:107;36029:355;;;:::o;33928:147::-;34006:17;34018:4;34006:7;;:11;;:17;;;;:::i;:::-;33996:7;:27;;;;34047:20;34062:4;34047:10;;:14;;:20;;;;:::i;:::-;34034:10;:33;;;;33928:147;;:::o

Swarm Source

ipfs://55fb29162a59219e3a222af45f28d9bb57f04d43deab702951e91ae8db151555
Block Transaction Gas Used Reward
Age Block Fee Address BC Fee Address Voting Power Jailed Incoming
Block Uncle Number Difficulty Gas Used Reward
Loading
Loading
Make sure to use the "Vote Down" button for any spammy posts, and the "Vote Up" for interesting conversations.